Time,TemperatureF,DewpointF,PressureIn,WindDirection,WindDirectionDegrees,WindSpeedMPH,WindSpeedGustMPH,Humidity,HourlyPrecipIn,Conditions,Clouds,dailyrainin,SoftwareType,DateUTC
2013-02-05 00:01:00,42.7,41.1,30.01,NW,313,2.0,9.0,94,0.00,,,0.00,Wunderground v.1.15,2013-02-05 05:01:00,
2013-02-05 00:03:00,42.8,41.2,30.01,WNW,302,2.0,9.0,94,0.00,,,0.00,Wunderground v.1.15,2013-02-05 05:03:00,
2013-02-05 00:05:00,42.8,41.2,30.00,NW,304,2.0,9.0,94,0.00,,,0.00,Wunderground v.1.15,2013-02-05 05:05:00,
2013-02-05 00:07:00,42.8,41.2,30.00,WNW,300,2.0,9.0,94,0.00,,,0.00,Wunderground v.1.15,2013-02-05 05:07:00,
2013-02-05 00:08:00,42.7,41.1,30.00,NW,315,3.0,9.0,94,0.00,,,0.00,Wunderground v.1.15,2013-02-05 05:08:00,
2013-02-05 00:12:00,42.7,41.1,30.00,WNW,296,3.0,9.0,94,0.00,,,0.00,Wunderground v.1.15,2013-02-05 05:12:00,
2013-02-05 00:13:00,42.7,41.1,30.01,WNW,295,3.0,9.0,94,0.00,,,0.00,Wunderground v.1.15,2013-02-05 05:13:00,
2013-02-05 00:15:00,42.8,41.2,30.00,WNW,303,3.0,9.0,94,0.00,,,0.00,Wunderground v.1.15,2013-02-05 05:15:00,
2013-02-05 00:16:00,42.8,41.2,30.01,NW,322,4.0,9.0,94,0.00,,,0.00,Wunderground v.1.15,2013-02-05 05:16:00,
2013-02-05 00:18:00,42.9,41.3,30.00,NW,308,4.0,9.0,94,0.00,,,0.00,Wunderground v.1.15,2013-02-05 05:18:00,
2013-02-05 00:19:00,42.9,41.3,30.00,WNW,301,4.0,9.0,94,0.00,,,0.00,Wunderground v.1.15,2013-02-05 05:19:00,
2013-02-05 00:22:00,42.9,41.3,30.00,NW,319,5.0,9.0,94,0.00,,,0.00,Wunderground v.1.15,2013-02-05 05:22:00,
2013-02-05 00:23:00,42.9,41.3,30.00,West,269,5.0,9.0,94,0.00,,,0.00,Wunderground v.1.15,2013-02-05 05:23:00,
2013-02-05 00:26:00,42.8,41.2,30.00,WNW,282,4.0,9.0,94,0.00,,,0.00,Wunderground v.1.15,2013-02-05 05:26:00,
2013-02-05 00:32:00,42.8,41.2,30.00,WNW,303,3.0,9.0,94,0.00,,,0.00,Wunderground v.1.15,2013-02-05 05:32:00,
2013-02-05 00:33:00,42.9,41.3,30.00,NW,306,3.0,9.0,94,0.00,,,0.00,Wunderground v.1.15,2013-02-05 05:33:00,
2013-02-05 00:36:00,42.8,41.2,30.00,WNW,298,3.0,9.0,94,0.00,,,0.00,Wunderground v.1.15,2013-02-05 05:36:00,
2013-02-05 00:37:00,42.9,41.3,30.00,West,263,4.0,9.0,94,0.00,,,0.00,Wunderground v.1.15,2013-02-05 05:37:00,
2013-02-05 00:38:00,42.9,41.3,30.00,WNW,289,5.0,9.0,94,0.00,,,0.00,Wunderground v.1.15,2013-02-05 05:38:00,
2013-02-05 00:40:00,42.9,41.3,30.00,WNW,300,5.0,9.0,94,0.00,,,0.00,Wunderground v.1.15,2013-02-05 05:40:00,
2013-02-05 00:42:00,42.9,41.3,30.00,NW,309,5.0,6.0,94,0.00,,,0.00,Wunderground v.1.15,2013-02-05 05:42:00,
2013-02-05 00:46:00,42.9,41.3,30.00,NNW,328,6.0,9.0,94,0.00,,,0.00,Wunderground v.1.15,2013-02-05 05:46:00,
2013-02-05 00:48:00,42.9,41.3,30.00,NW,309,5.0,9.0,94,0.00,,,0.00,Wunderground v.1.15,2013-02-05 05:48:00,
2013-02-05 00:49:00,42.9,41.3,30.00,NW,309,5.0,9.0,94,0.00,,,0.00,Wunderground v.1.15,2013-02-05 05:49:00,
2013-02-05 00:51:00,42.9,41.3,30.00,NW,309,5.0,9.0,94,0.00,,,0.00,Wunderground v.1.15,2013-02-05 05:51:00,
2013-02-05 00:52:00,42.9,41.3,30.00,NW,313,5.0,9.0,94,0.00,,,0.00,Wunderground v.1.15,2013-02-05 05:52:00,
2013-02-05 00:54:00,42.9,41.3,30.00,NW,308,5.0,9.0,94,0.00,,,0.00,Wunderground v.1.15,2013-02-05 05:54:00,
2013-02-05 00:57:00,42.9,41.3,29.99,NW,311,4.0,9.0,94,0.00,,,0.00,Wunderground v.1.15,2013-02-05 05:57:00,
2013-02-05 00:59:00,42.9,41.3,29.99,WNW,286,4.0,9.0,94,0.00,,,0.00,Wunderground v.1.15,2013-02-05 05:59:00,
2013-02-05 01:02:00,42.9,41.3,29.99,WNW,288,4.0,9.0,94,0.00,,,0.00,Wunderground v.1.15,2013-02-05 06:02:00,
2013-02-05 01:03:00,42.9,41.3,29.99,WNW,301,3.0,9.0,94,0.00,,,0.00,Wunderground v.1.15,2013-02-05 06:03:00,
2013-02-05 01:05:00,42.8,41.2,29.99,WNW,289,3.0,9.0,94,0.00,,,0.00,Wunderground v.1.15,2013-02-05 06:05:00,
2013-02-05 01:09:00,42.8,41.2,29.99,NW,304,3.0,9.0,94,0.00,,,0.00,Wunderground v.1.15,2013-02-05 06:09:00,
2013-02-05 01:10:00,42.8,41.2,29.99,WNW,295,3.0,9.0,94,0.00,,,0.00,Wunderground v.1.15,2013-02-05 06:10:00,
2013-02-05 01:11:00,42.8,41.2,29.99,WNW,300,3.0,3.0,94,0.00,,,0.00,Wunderground v.1.15,2013-02-05 06:11:00,
2013-02-05 01:14:00,42.8,41.2,29.99,NW,309,3.0,9.0,94,0.00,,,0.00,Wunderground v.1.15,2013-02-05 06:14:00,
2013-02-05 01:15:00,42.8,41.2,29.99,West,261,3.0,9.0,94,0.00,,,0.00,Wunderground v.1.15,2013-02-05 06:15:00,
2013-02-05 01:16:00,42.8,41.2,29.99,NW,306,3.0,9.0,94,0.00,,,0.00,Wunderground v.1.15,2013-02-05 06:16:00,
2013-02-05 01:17:00,42.8,41.2,29.99,West,270,2.0,9.0,94,0.00,,,0.00,Wunderground v.1.15,2013-02-05 06:17:00,
2013-02-05 01:22:00,42.8,41.2,29.99,West,276,2.0,4.0,94,0.00,,,0.00,Wunderground v.1.15,2013-02-05 06:22:00,
2013-02-05 01:24:00,42.8,41.2,29.99,WNW,284,2.0,9.0,94,0.00,,,0.00,Wunderground v.1.15,2013-02-05 06:24:00,
2013-02-05 01:26:00,42.8,41.2,29.99,West,267,2.0,9.0,94,0.00,,,0.00,Wunderground v.1.15,2013-02-05 06:26:00,
2013-02-05 01:27:00,42.8,41.2,29.99,West,273,2.0,9.0,94,0.00,,,0.00,Wunderground v.1.15,2013-02-05 06:27:00,
2013-02-05 01:30:00,42.8,41.2,29.99,NW,306,2.0,9.0,94,0.00,,,0.00,Wunderground v.1.15,2013-02-05 06:30:00,
2013-02-05 01:32:00,42.8,41.2,29.99,NW,306,2.0,9.0,94,0.00,,,0.00,Wunderground v.1.15,2013-02-05 06:32:00,
2013-02-05 01:33:00,42.8,41.2,29.99,West,261,1.0,9.0,94,0.00,,,0.00,Wunderground v.1.15,2013-02-05 06:33:00,
2013-02-05 01:34:00,42.7,41.1,29.99,West,275,1.0,9.0,94,0.00,,,0.00,Wunderground v.1.15,2013-02-05 06:34:00,
2013-02-05 01:37:00,42.7,41.1,29.99,West,276,2.0,9.0,94,0.00,,,0.00,Wunderground v.1.15,2013-02-05 06:37:00,
2013-02-05 01:38:00,42.7,41.1,29.99,WNW,298,1.0,9.0,94,0.00,,,0.00,Wunderground v.1.15,2013-02-05 06:38:00,
2013-02-05 01:42:00,42.7,41.1,29.99,WNW,293,1.0,9.0,94,0.00,,,0.00,Wunderground v.1.15,2013-02-05 06:42:00,
2013-02-05 01:43:00,42.7,41.1,29.99,WNW,284,2.0,9.0,94,0.00,,,0.00,Wunderground v.1.15,2013-02-05 06:43:00,
2013-02-05 01:46:00,42.7,41.1,29.99,WNW,282,2.0,9.0,94,0.00,,,0.00,Wunderground v.1.15,2013-02-05 06:46:00,
2013-02-05 01:48:00,42.6,41.0,29.99,WNW,296,2.0,9.0,94,0.00,,,0.00,Wunderground v.1.15,2013-02-05 06:48:00,
2013-02-05 01:50:00,42.6,41.0,30.00,WNW,284,1.0,9.0,94,0.00,,,0.00,Wunderground v.1.15,2013-02-05 06:50:00,
2013-02-05 01:51:00,42.6,41.0,30.00,West,262,1.0,9.0,94,0.00,,,0.00,Wunderground v.1.15,2013-02-05 06:51:00,
2013-02-05 01:52:00,42.6,41.0,30.00,WNW,298,1.0,9.0,94,0.00,,,0.00,Wunderground v.1.15,2013-02-05 06:52:00,
2013-02-05 01:54:00,42.5,40.9,30.00,WNW,288,1.0,9.0,94,0.00,,,0.00,Wunderground v.1.15,2013-02-05 06:54:00,
2013-02-05 01:56:00,42.5,40.9,30.00,WNW,291,1.0,9.0,94,0.00,,,0.00,Wunderground v.1.15,2013-02-05 06:56:00,
2013-02-05 01:58:00,42.5,40.9,30.00,WNW,292,1.0,9.0,94,0.00,,,0.00,Wunderground v.1.15,2013-02-05 06:58:00,
2013-02-05 02:01:00,42.5,40.9,30.00,WNW,284,1.0,1.0,94,0.00,,,0.00,Wunderground v.1.15,2013-02-05 07:01:00,
2013-02-05 02:02:00,42.4,40.8,30.00,WNW,298,1.0,3.0,94,0.00,,,0.00,Wunderground v.1.15,2013-02-05 07:02:00,
2013-02-05 02:03:00,42.5,40.9,30.00,WNW,294,1.0,9.0,94,0.00,,,0.00,Wunderground v.1.15,2013-02-05 07:03:00,
2013-02-05 02:04:00,42.5,40.9,30.00,West,277,1.0,9.0,94,0.00,,,0.00,Wunderground v.1.15,2013-02-05 07:04:00,
2013-02-05 02:09:00,42.5,40.9,30.00,WNW,302,1.0,9.0,94,0.00,,,0.00,Wunderground v.1.15,2013-02-05 07:09:00,
2013-02-05 02:11:00,42.4,40.8,30.00,WNW,296,1.0,9.0,94,0.00,,,0.00,Wunderground v.1.15,2013-02-05 07:11:00,
2013-02-05 02:12:00,42.4,40.8,30.00,West,265,1.0,9.0,94,0.00,,,0.00,Wunderground v.1.15,2013-02-05 07:12:00,
2013-02-05 02:13:00,42.4,40.8,30.00,West,265,1.0,9.0,94,0.00,,,0.00,Wunderground v.1.15,2013-02-05 07:13:00,
2013-02-05 02:16:00,42.4,40.8,30.00,WNW,288,1.0,9.0,94,0.00,,,0.00,Wunderground v.1.15,2013-02-05 07:16:00,
2013-02-05 02:18:00,42.4,40.8,30.00,West,275,1.0,9.0,94,0.00,,,0.00,Wunderground v.1.15,2013-02-05 07:18:00,
2013-02-05 02:19:00,42.4,40.8,30.00,West,278,1.0,9.0,94,0.00,,,0.00,Wunderground v.1.15,2013-02-05 07:19:00,
2013-02-05 02:23:00,42.5,40.9,30.00,WNW,301,2.0,9.0,94,0.00,,,0.00,Wunderground v.1.15,2013-02-05 07:23:00,
2013-02-05 02:24:00,42.5,40.9,30.00,NW,310,2.0,9.0,94,0.00,,,0.00,Wunderground v.1.15,2013-02-05 07:24:00,
2013-02-05 02:27:00,42.5,40.9,30.00,WNW,296,2.0,9.0,94,0.00,,,0.00,Wunderground v.1.15,2013-02-05 07:27:00,
2013-02-05 02:28:00,42.5,40.9,30.00,WNW,301,2.0,9.0,94,0.00,,,0.00,Wunderground v.1.15,2013-02-05 07:28:00,
2013-02-05 02:33:00,42.4,40.8,30.00,WNW,294,1.0,9.0,94,0.00,,,0.00,Wunderground v.1.15,2013-02-05 07:33:00,
2013-02-05 02:35:00,42.4,40.8,30.00,WNW,296,1.0,9.0,94,0.00,,,0.00,Wunderground v.1.15,2013-02-05 07:35:00,
2013-02-05 02:37:00,42.4,40.8,30.00,WNW,294,2.0,9.0,94,0.00,,,0.00,Wunderground v.1.15,2013-02-05 07:37:00,
2013-02-05 02:39:00,42.4,40.8,30.00,WNW,289,2.0,9.0,94,0.00,,,0.00,Wunderground v.1.15,2013-02-05 07:39:00,
2013-02-05 02:40:00,42.4,40.8,30.00,WNW,287,2.0,9.0,94,0.00,,,0.00,Wunderground v.1.15,2013-02-05 07:40:00,
2013-02-05 02:41:00,42.4,40.8,30.00,West,275,2.0,9.0,94,0.00,,,0.00,Wunderground v.1.15,2013-02-05 07:41:00,
2013-02-05 02:42:00,42.5,40.9,30.00,WNW,303,2.0,9.0,94,0.00,,,0.00,Wunderground v.1.15,2013-02-05 07:42:00,
2013-02-05 02:44:00,42.5,40.9,30.00,WNW,289,3.0,9.0,94,0.00,,,0.00,Wunderground v.1.15,2013-02-05 07:44:00,
2013-02-05 02:47:00,42.5,40.9,30.00,WNW,287,3.0,9.0,94,0.00,,,0.00,Wunderground v.1.15,2013-02-05 07:47:00,
2013-02-05 02:48:00,42.5,40.9,30.00,West,281,3.0,9.0,94,0.00,,,0.00,Wunderground v.1.15,2013-02-05 07:48:00,
2013-02-05 02:49:00,42.5,40.9,30.00,WNW,295,3.0,9.0,94,0.00,,,0.00,Wunderground v.1.15,2013-02-05 07:49:00,
2013-02-05 02:53:00,42.5,40.9,30.00,NW,315,3.0,9.0,94,0.00,,,0.00,Wunderground v.1.15,2013-02-05 07:53:00,
2013-02-05 02:54:00,42.5,40.9,30.00,WNW,302,3.0,9.0,94,0.00,,,0.00,Wunderground v.1.15,2013-02-05 07:54:00,
2013-02-05 02:55:00,42.5,40.9,30.00,WNW,299,3.0,9.0,94,0.00,,,0.00,Wunderground v.1.15,2013-02-05 07:55:00,
2013-02-05 02:59:00,42.5,40.9,30.00,WNW,301,3.0,9.0,94,0.00,,,0.00,Wunderground v.1.15,2013-02-05 07:59:00,
2013-02-05 03:02:00,42.5,40.9,30.00,NW,306,3.0,9.0,94,0.00,,,0.00,Wunderground v.1.15,2013-02-05 08:02:00,
2013-02-05 03:05:00,42.5,40.9,30.00,West,270,3.0,9.0,94,0.00,,,0.00,Wunderground v.1.15,2013-02-05 08:05:00,
2013-02-05 03:08:00,42.4,40.8,29.99,WNW,286,2.0,9.0,94,0.00,,,0.00,Wunderground v.1.15,2013-02-05 08:08:00,
2013-02-05 03:09:00,42.4,40.8,29.99,West,262,2.0,9.0,94,0.00,,,0.00,Wunderground v.1.15,2013-02-05 08:09:00,
2013-02-05 03:10:00,42.4,40.8,29.99,WNW,286,2.0,9.0,94,0.00,,,0.00,Wunderground v.1.15,2013-02-05 08:10:00,
2013-02-05 03:13:00,42.4,40.8,29.99,WNW,290,2.0,9.0,94,0.00,,,0.00,Wunderground v.1.15,2013-02-05 08:13:00,
2013-02-05 03:15:00,42.4,40.8,29.99,NW,309,2.0,9.0,94,0.00,,,0.00,Wunderground v.1.15,2013-02-05 08:15:00,
2013-02-05 03:18:00,42.4,40.8,29.99,WNW,290,2.0,9.0,94,0.00,,,0.00,Wunderground v.1.15,2013-02-05 08:18:00,
2013-02-05 03:19:00,42.4,40.8,29.99,WNW,299,2.0,9.0,94,0.00,,,0.00,Wunderground v.1.15,2013-02-05 08:19:00,
2013-02-05 03:20:00,42.4,40.8,29.99,NW,309,2.0,9.0,94,0.00,,,0.00,Wunderground v.1.15,2013-02-05 08:20:00,
2013-02-05 03:25:00,42.4,40.8,29.99,WNW,296,1.0,9.0,94,0.00,,,0.00,Wunderground v.1.15,2013-02-05 08:25:00,
2013-02-05 03:26:00,42.4,40.8,29.99,WNW,295,1.0,9.0,94,0.00,,,0.00,Wunderground v.1.15,2013-02-05 08:26:00,
2013-02-05 03:28:00,42.3,40.7,29.99,WNW,282,1.0,9.0,94,0.00,,,0.00,Wunderground v.1.15,2013-02-05 08:28:00,
2013-02-05 03:31:00,42.4,40.8,29.99,WNW,288,1.0,1.0,94,0.00,,,0.00,Wunderground v.1.15,2013-02-05 08:31:00,
2013-02-05 03:33:00,42.3,40.7,29.99,WNW,289,1.0,9.0,94,0.00,,,0.00,Wunderground v.1.15,2013-02-05 08:33:00,
2013-02-05 03:35:00,42.3,40.7,29.99,WNW,295,1.0,9.0,94,0.00,,,0.00,Wunderground v.1.15,2013-02-05 08:35:00,
2013-02-05 03:38:00,42.2,40.6,29.99,WNW,298,1.0,9.0,94,0.00,,,0.00,Wunderground v.1.15,2013-02-05 08:38:00,
2013-02-05 03:41:00,42.2,40.6,29.99,WNW,288,1.0,9.0,94,0.00,,,0.00,Wunderground v.1.15,2013-02-05 08:41:00,
2013-02-05 03:43:00,42.3,40.7,29.99,WNW,292,2.0,9.0,94,0.00,,,0.00,Wunderground v.1.15,2013-02-05 08:43:00,
2013-02-05 03:45:00,42.3,40.7,29.99,WNW,298,2.0,9.0,94,0.00,,,0.00,Wunderground v.1.15,2013-02-05 08:45:00,
2013-02-05 03:46:00,42.3,40.7,29.99,WNW,300,3.0,9.0,94,0.00,,,0.00,Wunderground v.1.15,2013-02-05 08:46:00,
2013-02-05 03:49:00,42.3,40.7,29.99,NW,305,3.0,9.0,94,0.00,,,0.00,Wunderground v.1.15,2013-02-05 08:49:00,
2013-02-05 03:50:00,42.4,40.8,29.99,WNW,296,3.0,9.0,94,0.00,,,0.00,Wunderground v.1.15,2013-02-05 08:50:00,
2013-02-05 03:53:00,42.4,40.5,29.99,WNW,303,4.0,9.0,93,0.00,,,0.00,Wunderground v.1.15,2013-02-05 08:53:00,
2013-02-05 03:55:00,42.4,40.5,29.99,WNW,293,4.0,9.0,93,0.00,,,0.00,Wunderground v.1.15,2013-02-05 08:55:00,
2013-02-05 03:59:00,42.4,40.5,29.99,WNW,288,4.0,9.0,93,0.00,,,0.00,Wunderground v.1.15,2013-02-05 08:59:00,
2013-02-05 04:03:00,42.4,40.5,29.99,WNW,298,4.0,9.0,93,0.00,,,0.00,Wunderground v.1.15,2013-02-05 09:03:00,
2013-02-05 04:04:00,42.4,40.5,29.99,WNW,302,4.0,9.0,93,0.00,,,0.00,Wunderground v.1.15,2013-02-05 09:04:00,
2013-02-05 04:06:00,42.4,40.5,29.99,WNW,300,3.0,9.0,93,0.00,,,0.00,Wunderground v.1.15,2013-02-05 09:06:00,
2013-02-05 04:08:00,42.4,40.5,29.98,WNW,287,3.0,9.0,93,0.00,,,0.00,Wunderground v.1.15,2013-02-05 09:08:00,
2013-02-05 04:10:00,42.3,40.4,29.98,WNW,286,3.0,9.0,93,0.00,,,0.00,Wunderground v.1.15,2013-02-05 09:10:00,
2013-02-05 04:11:00,42.3,40.4,29.98,West,275,3.0,3.0,93,0.00,,,0.00,Wunderground v.1.15,2013-02-05 09:11:00,
2013-02-05 04:15:00,42.2,40.3,29.98,West,263,2.0,9.0,93,0.00,,,0.00,Wunderground v.1.15,2013-02-05 09:15:00,
2013-02-05 04:16:00,42.2,40.3,29.98,WNW,294,2.0,9.0,93,0.00,,,0.00,Wunderground v.1.15,2013-02-05 09:16:00,
2013-02-05 04:17:00,42.2,40.3,29.98,West,279,2.0,9.0,93,0.00,,,0.00,Wunderground v.1.15,2013-02-05 09:17:00,
2013-02-05 04:21:00,42.2,40.6,29.98,West,279,1.0,1.0,94,0.00,,,0.00,Wunderground v.1.15,2013-02-05 09:21:00,
2013-02-05 04:24:00,42.1,40.5,29.98,SW,234,2.0,9.0,94,0.00,,,0.00,Wunderground v.1.15,2013-02-05 09:24:00,
2013-02-05 04:25:00,42.1,40.5,29.98,West,277,2.0,9.0,94,0.00,,,0.00,Wunderground v.1.15,2013-02-05 09:25:00,
2013-02-05 04:26:00,42.1,40.5,29.98,West,269,2.0,9.0,94,0.00,,,0.00,Wunderground v.1.15,2013-02-05 09:26:00,
2013-02-05 04:30:00,42.0,40.4,29.98,WNW,298,2.0,9.0,94,0.00,,,0.00,Wunderground v.1.15,2013-02-05 09:30:00,
2013-02-05 04:34:00,42.1,40.2,29.98,West,279,2.0,9.0,93,0.00,,,0.00,Wunderground v.1.15,2013-02-05 09:34:00,
2013-02-05 04:35:00,42.0,40.1,29.98,West,273,2.0,9.0,93,0.00,,,0.00,Wunderground v.1.15,2013-02-05 09:35:00,
2013-02-05 04:36:00,42.0,40.1,29.97,West,275,2.0,9.0,93,0.00,,,0.00,Wunderground v.1.15,2013-02-05 09:36:00,
2013-02-05 04:41:00,42.0,40.1,29.97,WSW,257,2.0,9.0,93,0.00,,,0.00,Wunderground v.1.15,2013-02-05 09:41:00,
2013-02-05 04:43:00,42.0,40.1,29.97,West,274,3.0,9.0,93,0.00,,,0.00,Wunderground v.1.15,2013-02-05 09:43:00,
2013-02-05 04:45:00,42.0,40.1,29.97,West,272,3.0,9.0,93,0.00,,,0.00,Wunderground v.1.15,2013-02-05 09:45:00,
2013-02-05 04:46:00,42.0,40.1,29.97,WSW,253,3.0,9.0,93,0.00,,,0.00,Wunderground v.1.15,2013-02-05 09:46:00,
2013-02-05 04:48:00,42.0,40.1,29.97,WNW,291,3.0,9.0,93,0.00,,,0.00,Wunderground v.1.15,2013-02-05 09:48:00,
2013-02-05 04:50:00,41.9,40.0,29.97,WNW,292,3.0,9.0,93,0.00,,,0.00,Wunderground v.1.15,2013-02-05 09:50:00,
2013-02-05 04:52:00,41.9,40.0,29.97,West,279,3.0,9.0,93,0.00,,,0.00,Wunderground v.1.15,2013-02-05 09:52:00,
2013-02-05 04:53:00,41.9,40.0,29.97,WSW,252,3.0,9.0,93,0.00,,,0.00,Wunderground v.1.15,2013-02-05 09:53:00,
2013-02-05 04:54:00,41.9,40.0,29.97,West,267,3.0,9.0,93,0.00,,,0.00,Wunderground v.1.15,2013-02-05 09:54:00,
2013-02-05 04:55:00,41.9,40.0,29.97,West,271,3.0,9.0,93,0.00,,,0.00,Wunderground v.1.15,2013-02-05 09:55:00,
2013-02-05 04:59:00,41.9,40.0,29.98,West,278,4.0,9.0,93,0.00,,,0.00,Wunderground v.1.15,2013-02-05 09:59:00,
2013-02-05 05:01:00,41.9,40.0,29.98,West,280,3.0,3.0,93,0.00,,,0.00,Wunderground v.1.15,2013-02-05 10:01:00,
2013-02-05 05:03:00,41.9,40.0,29.98,SW,231,3.0,9.0,93,0.00,,,0.00,Wunderground v.1.15,2013-02-05 10:03:00,
2013-02-05 05:04:00,41.9,40.0,29.98,WSW,240,3.0,9.0,93,0.00,,,0.00,Wunderground v.1.15,2013-02-05 10:04:00,
2013-02-05 05:06:00,41.8,39.9,29.98,West,277,3.0,9.0,93,0.00,,,0.00,Wunderground v.1.15,2013-02-05 10:06:00,
2013-02-05 05:09:00,41.8,39.9,29.98,West,278,2.0,9.0,93,0.00,,,0.00,Wunderground v.1.15,2013-02-05 10:09:00,
2013-02-05 05:11:00,41.8,39.9,29.98,West,259,2.0,2.0,93,0.00,,,0.00,Wunderground v.1.15,2013-02-05 10:11:00,
2013-02-05 05:14:00,41.7,39.8,29.98,West,281,2.0,9.0,93,0.00,,,0.00,Wunderground v.1.15,2013-02-05 10:14:00,
2013-02-05 05:16:00,41.8,39.9,29.98,West,259,2.0,9.0,93,0.00,,,0.00,Wunderground v.1.15,2013-02-05 10:16:00,
2013-02-05 05:17:00,41.7,39.8,29.98,WNW,293,2.0,9.0,93,0.00,,,0.00,Wunderground v.1.15,2013-02-05 10:17:00,
2013-02-05 05:18:00,41.7,39.8,29.98,WNW,284,3.0,9.0,93,0.00,,,0.00,Wunderground v.1.15,2013-02-05 10:18:00,
2013-02-05 05:22:00,41.8,40.2,29.98,WNW,286,4.0,9.0,94,0.00,,,0.00,Wunderground v.1.15,2013-02-05 10:22:00,
2013-02-05 05:23:00,41.8,40.2,29.98,West,274,4.0,9.0,94,0.00,,,0.00,Wunderground v.1.15,2013-02-05 10:23:00,
2013-02-05 05:24:00,41.7,40.1,29.98,WNW,290,4.0,9.0,94,0.00,,,0.00,Wunderground v.1.15,2013-02-05 10:24:00,
2013-02-05 05:27:00,41.8,40.2,29.98,WNW,294,4.0,9.0,94,0.00,,,0.00,Wunderground v.1.15,2013-02-05 10:27:00,
2013-02-05 05:29:00,41.7,40.1,29.98,WNW,302,4.0,9.0,94,0.00,,,0.00,Wunderground v.1.15,2013-02-05 10:29:00,
2013-02-05 05:30:00,41.8,40.2,29.98,WNW,297,4.0,9.0,94,0.00,,,0.00,Wunderground v.1.15,2013-02-05 10:30:00,
2013-02-05 05:33:00,41.8,40.2,29.98,WNW,290,3.0,9.0,94,0.00,,,0.00,Wunderground v.1.15,2013-02-05 10:33:00,
2013-02-05 05:34:00,41.8,40.2,29.98,WNW,300,3.0,9.0,94,0.00,,,0.00,Wunderground v.1.15,2013-02-05 10:34:00,
2013-02-05 05:37:00,41.9,40.0,29.98,NW,306,3.0,9.0,93,0.00,,,0.00,Wunderground v.1.15,2013-02-05 10:37:00,
2013-02-05 05:38:00,41.8,39.9,29.99,NW,311,3.0,9.0,93,0.00,,,0.00,Wunderground v.1.15,2013-02-05 10:38:00,
2013-02-05 05:39:00,41.8,39.9,29.99,WNW,299,3.0,9.0,93,0.00,,,0.00,Wunderground v.1.15,2013-02-05 10:39:00,
2013-02-05 05:40:00,41.8,39.9,29.99,WNW,302,2.0,9.0,93,0.00,,,0.00,Wunderground v.1.15,2013-02-05 10:40:00,
2013-02-05 05:44:00,41.8,40.2,29.99,West,261,2.0,9.0,94,0.00,,,0.00,Wunderground v.1.15,2013-02-05 10:44:00,
2013-02-05 05:45:00,41.8,40.2,29.99,NW,306,2.0,9.0,94,0.00,,,0.00,Wunderground v.1.15,2013-02-05 10:45:00,
2013-02-05 05:47:00,41.8,39.9,29.99,WNW,297,2.0,9.0,93,0.00,,,0.00,Wunderground v.1.15,2013-02-05 10:47:00,
2013-02-05 05:49:00,41.8,40.2,29.98,WNW,288,2.0,9.0,94,0.00,,,0.00,Wunderground v.1.15,2013-02-05 10:49:00,
2013-02-05 05:52:00,41.8,40.2,29.99,West,267,1.0,9.0,94,0.00,,,0.00,Wunderground v.1.15,2013-02-05 10:52:00,
2013-02-05 05:53:00,41.8,40.2,29.99,WNW,297,2.0,9.0,94,0.00,,,0.00,Wunderground v.1.15,2013-02-05 10:53:00,
2013-02-05 05:56:00,41.8,40.2,29.99,West,277,2.0,9.0,94,0.00,,,0.00,Wunderground v.1.15,2013-02-05 10:56:00,
2013-02-05 05:59:00,41.8,40.2,29.99,WNW,289,2.0,9.0,94,0.00,,,0.00,Wunderground v.1.15,2013-02-05 10:59:00,
2013-02-05 06:01:00,41.8,40.2,29.99,WNW,301,2.0,9.0,94,0.00,,,0.00,Wunderground v.1.15,2013-02-05 11:01:00,
2013-02-05 06:06:00,41.8,40.2,29.99,NW,312,2.0,9.0,94,0.00,,,0.00,Wunderground v.1.15,2013-02-05 11:06:00,
2013-02-05 06:07:00,41.8,40.2,29.99,WNW,285,3.0,9.0,94,0.00,,,0.00,Wunderground v.1.15,2013-02-05 11:07:00,
2013-02-05 06:08:00,41.9,40.3,29.99,NW,307,3.0,9.0,94,0.00,,,0.00,Wunderground v.1.15,2013-02-05 11:08:00,
2013-02-05 06:13:00,41.9,40.3,29.99,West,279,4.0,9.0,94,0.00,,,0.00,Wunderground v.1.15,2013-02-05 11:13:00,
2013-02-05 06:14:00,41.9,40.3,29.99,WNW,296,4.0,9.0,94,0.00,,,0.00,Wunderground v.1.15,2013-02-05 11:14:00,
2013-02-05 06:15:00,41.9,40.3,29.99,WNW,291,4.0,9.0,94,0.00,,,0.00,Wunderground v.1.15,2013-02-05 11:15:00,
2013-02-05 06:18:00,41.9,40.3,29.99,WNW,293,4.0,9.0,94,0.00,,,0.00,Wunderground v.1.15,2013-02-05 11:18:00,
2013-02-05 06:20:00,41.9,40.3,29.99,NW,311,4.0,9.0,94,0.00,,,0.00,Wunderground v.1.15,2013-02-05 11:20:00,
2013-02-05 06:21:00,41.9,40.3,29.99,WNW,295,4.0,4.0,94,0.00,,,0.00,Wunderground v.1.15,2013-02-05 11:21:00,
2013-02-05 06:23:00,41.9,40.3,29.99,WNW,293,3.0,9.0,94,0.00,,,0.00,Wunderground v.1.15,2013-02-05 11:23:00,
2013-02-05 06:25:00,41.9,40.3,29.99,WNW,302,3.0,9.0,94,0.00,,,0.00,Wunderground v.1.15,2013-02-05 11:25:00,
2013-02-05 06:26:00,41.9,40.3,29.99,NW,304,3.0,9.0,94,0.00,,,0.00,Wunderground v.1.15,2013-02-05 11:26:00,
2013-02-05 06:27:00,41.9,40.3,29.99,WNW,296,2.0,9.0,94,0.00,,,0.00,Wunderground v.1.15,2013-02-05 11:27:00,
2013-02-05 06:31:00,41.8,40.2,29.98,WNW,286,2.0,9.0,94,0.00,,,0.00,Wunderground v.1.15,2013-02-05 11:31:00,
2013-02-05 06:32:00,41.8,40.2,29.98,WNW,286,2.0,9.0,94,0.00,,,0.00,Wunderground v.1.15,2013-02-05 11:32:00,
2013-02-05 06:33:00,41.9,40.3,29.98,WNW,299,2.0,9.0,94,0.00,,,0.00,Wunderground v.1.15,2013-02-05 11:33:00,
2013-02-05 06:34:00,41.9,40.3,29.98,WNW,300,2.0,9.0,94,0.00,,,0.00,Wunderground v.1.15,2013-02-05 11:34:00,
2013-02-05 06:37:00,41.9,40.3,29.98,WSW,252,3.0,9.0,94,0.00,,,0.00,Wunderground v.1.15,2013-02-05 11:37:00,
2013-02-05 06:38:00,41.9,40.3,29.98,WNW,298,3.0,9.0,94,0.00,,,0.00,Wunderground v.1.15,2013-02-05 11:38:00,
2013-02-05 06:41:00,41.9,40.3,29.98,WNW,292,4.0,9.0,94,0.00,,,0.00,Wunderground v.1.15,2013-02-05 11:41:00,
2013-02-05 06:42:00,41.9,40.3,29.98,WNW,284,4.0,9.0,94,0.00,,,0.00,Wunderground v.1.15,2013-02-05 11:42:00,
2013-02-05 06:43:00,41.9,40.3,29.98,WNW,289,4.0,9.0,94,0.00,,,0.00,Wunderground v.1.15,2013-02-05 11:43:00,
2013-02-05 06:47:00,42.0,40.1,29.98,WNW,302,5.0,9.0,93,0.00,,,0.00,Wunderground v.1.15,2013-02-05 11:47:00,
2013-02-05 06:48:00,42.0,40.1,29.98,WNW,282,4.0,9.0,93,0.00,,,0.00,Wunderground v.1.15,2013-02-05 11:48:00,
2013-02-05 06:49:00,41.9,40.0,29.98,WSW,252,4.0,9.0,93,0.00,,,0.00,Wunderground v.1.15,2013-02-05 11:49:00,
2013-02-05 06:50:00,41.9,40.0,29.98,WNW,284,4.0,9.0,93,0.00,,,0.00,Wunderground v.1.15,2013-02-05 11:50:00,
2013-02-05 06:54:00,41.9,40.0,29.98,WNW,289,4.0,9.0,93,0.00,,,0.00,Wunderground v.1.15,2013-02-05 11:54:00,
2013-02-05 06:56:00,41.9,40.0,29.98,West,280,4.0,9.0,93,0.00,,,0.00,Wunderground v.1.15,2013-02-05 11:56:00,
2013-02-05 06:57:00,41.9,40.0,29.98,WNW,301,4.0,9.0,93,0.00,,,0.00,Wunderground v.1.15,2013-02-05 11:57:00,
2013-02-05 06:58:00,41.9,40.0,29.98,WNW,286,4.0,9.0,93,0.00,,,0.00,Wunderground v.1.15,2013-02-05 11:58:00,
2013-02-05 07:02:00,41.9,40.0,29.98,WNW,284,3.0,9.0,93,0.00,,,0.00,Wunderground v.1.15,2013-02-05 12:02:00,
2013-02-05 07:04:00,41.9,40.0,29.98,WSW,244,3.0,9.0,93,0.00,,,0.00,Wunderground v.1.15,2013-02-05 12:04:00,
2013-02-05 07:06:00,41.9,40.0,29.98,WNW,288,3.0,9.0,93,0.00,,,0.00,Wunderground v.1.15,2013-02-05 12:06:00,
2013-02-05 07:08:00,41.9,40.0,29.98,West,269,3.0,9.0,93,0.00,,,0.00,Wunderground v.1.15,2013-02-05 12:08:00,
2013-02-05 07:09:00,41.9,40.0,29.98,WNW,303,3.0,9.0,93,0.00,,,0.00,Wunderground v.1.15,2013-02-05 12:09:00,
2013-02-05 07:11:00,41.8,39.9,29.98,WNW,284,3.0,3.0,93,0.00,,,0.00,Wunderground v.1.15,2013-02-05 12:11:00,
2013-02-05 07:12:00,41.9,40.0,29.98,WNW,287,3.0,5.0,93,0.00,,,0.00,Wunderground v.1.15,2013-02-05 12:12:00,
2013-02-05 07:14:00,41.9,40.0,29.98,West,279,3.0,9.0,93,0.00,,,0.00,Wunderground v.1.15,2013-02-05 12:14:00,
2013-02-05 07:18:00,41.9,40.0,29.98,WNW,292,3.0,9.0,93,0.00,,,0.00,Wunderground v.1.15,2013-02-05 12:18:00,
2013-02-05 07:19:00,41.9,40.0,29.98,West,265,3.0,9.0,93,0.00,,,0.00,Wunderground v.1.15,2013-02-05 12:19:00,
2013-02-05 07:20:00,41.9,40.0,29.98,WNW,284,3.0,9.0,93,0.00,,,0.00,Wunderground v.1.15,2013-02-05 12:20:00,
2013-02-05 07:23:00,41.9,40.0,29.99,WSW,250,3.0,9.0,93,0.00,,,0.00,Wunderground v.1.15,2013-02-05 12:23:00,
2013-02-05 07:24:00,41.9,40.0,29.99,West,261,3.0,9.0,93,0.00,,,0.00,Wunderground v.1.15,2013-02-05 12:24:00,
2013-02-05 07:26:00,42.0,40.1,29.99,WNW,288,4.0,9.0,93,0.00,,,0.00,Wunderground v.1.15,2013-02-05 12:26:00,
2013-02-05 07:27:00,41.9,40.0,29.99,WNW,285,4.0,9.0,93,0.00,,,0.00,Wunderground v.1.15,2013-02-05 12:27:00,
2013-02-05 07:30:00,41.9,40.0,29.99,WNW,296,3.0,9.0,93,0.00,,,0.00,Wunderground v.1.15,2013-02-05 12:30:00,
2013-02-05 07:31:00,41.9,40.0,29.99,NW,304,3.0,9.0,93,0.00,,,0.00,Wunderground v.1.15,2013-02-05 12:31:00,
2013-02-05 07:32:00,41.9,40.0,29.99,NW,307,3.0,9.0,93,0.00,,,0.00,Wunderground v.1.15,2013-02-05 12:32:00,
2013-02-05 07:34:00,41.9,40.0,29.99,WNW,295,3.0,9.0,93,0.00,,,0.00,Wunderground v.1.15,2013-02-05 12:34:00,
2013-02-05 07:36:00,41.9,40.0,29.99,West,272,3.0,9.0,93,0.00,,,0.00,Wunderground v.1.15,2013-02-05 12:36:00,
2013-02-05 07:37:00,41.9,40.0,29.99,WNW,302,3.0,9.0,93,0.00,,,0.00,Wunderground v.1.15,2013-02-05 12:37:00,
2013-02-05 07:40:00,41.9,40.0,29.99,WNW,294,3.0,9.0,93,0.00,,,0.00,Wunderground v.1.15,2013-02-05 12:40:00,
2013-02-05 07:41:00,41.9,40.0,30.00,WNW,302,3.0,9.0,93,0.00,,,0.00,Wunderground v.1.15,2013-02-05 12:41:00,
2013-02-05 07:42:00,41.9,40.0,30.00,WNW,286,3.0,10.0,93,0.00,,,0.00,Wunderground v.1.15,2013-02-05 12:42:00,
2013-02-05 07:47:00,41.9,40.0,30.00,NW,310,4.0,10.0,93,0.00,,,0.00,Wunderground v.1.15,2013-02-05 12:47:00,
2013-02-05 07:48:00,41.9,40.0,30.00,WNW,294,4.0,10.0,93,0.00,,,0.00,Wunderground v.1.15,2013-02-05 12:48:00,
2013-02-05 07:49:00,41.9,40.0,30.00,WNW,296,4.0,10.0,93,0.00,,,0.00,Wunderground v.1.15,2013-02-05 12:49:00,
2013-02-05 07:52:00,41.9,40.0,30.00,WNW,291,4.0,9.0,93,0.00,,,0.00,Wunderground v.1.15,2013-02-05 12:52:00,
2013-02-05 07:53:00,41.8,39.9,30.00,WNW,296,4.0,9.0,93,0.00,,,0.00,Wunderground v.1.15,2013-02-05 12:53:00,
2013-02-05 07:55:00,41.8,39.9,30.00,West,261,4.0,9.0,93,0.00,,,0.00,Wunderground v.1.15,2013-02-05 12:55:00,
2013-02-05 07:58:00,41.8,39.9,30.00,West,276,4.0,9.0,93,0.00,,,0.00,Wunderground v.1.15,2013-02-05 12:58:00,
2013-02-05 08:02:00,41.8,39.9,30.00,NW,319,3.0,9.0,93,0.00,,,0.00,Wunderground v.1.15,2013-02-05 13:02:00,
2013-02-05 08:03:00,41.8,39.9,30.00,WNW,294,4.0,9.0,93,0.00,,,0.00,Wunderground v.1.15,2013-02-05 13:03:00,
2013-02-05 08:06:00,41.8,39.9,30.00,WNW,287,4.0,9.0,93,0.00,,,0.00,Wunderground v.1.15,2013-02-05 13:06:00,
2013-02-05 08:07:00,41.8,39.9,30.00,WNW,296,4.0,9.0,93,0.00,,,0.00,Wunderground v.1.15,2013-02-05 13:07:00,
2013-02-05 08:09:00,41.8,39.9,30.00,NW,306,4.0,9.0,93,0.00,,,0.00,Wunderground v.1.15,2013-02-05 13:09:00,
2013-02-05 08:14:00,41.8,39.9,30.01,WNW,288,4.0,9.0,93,0.00,,,0.00,Wunderground v.1.15,2013-02-05 13:14:00,
2013-02-05 08:15:00,41.8,39.9,30.00,WNW,294,3.0,9.0,93,0.00,,,0.00,Wunderground v.1.15,2013-02-05 13:15:00,
2013-02-05 08:19:00,41.8,39.9,30.01,WNW,292,3.0,9.0,93,0.00,,,0.00,Wunderground v.1.15,2013-02-05 13:19:00,
2013-02-05 08:23:00,41.8,39.9,30.01,WNW,288,4.0,9.0,93,0.00,,,0.00,Wunderground v.1.15,2013-02-05 13:23:00,
2013-02-05 08:24:00,41.8,39.9,30.01,NW,320,4.0,9.0,93,0.00,,,0.00,Wunderground v.1.15,2013-02-05 13:24:00,
2013-02-05 08:26:00,41.9,40.0,30.01,WNW,289,4.0,9.0,93,0.00,,,0.00,Wunderground v.1.15,2013-02-05 13:26:00,
2013-02-05 08:28:00,41.9,39.7,30.01,NW,312,5.0,9.0,92,0.00,,,0.00,Wunderground v.1.15,2013-02-05 13:28:00,
2013-02-05 08:29:00,41.9,39.7,30.01,NW,315,5.0,9.0,92,0.00,,,0.00,Wunderground v.1.15,2013-02-05 13:29:00,
2013-02-05 08:31:00,41.9,39.7,30.01,NW,304,5.0,5.0,92,0.00,,,0.00,Wunderground v.1.15,2013-02-05 13:31:00,
2013-02-05 08:34:00,41.9,39.7,30.01,WNW,298,4.0,9.0,92,0.00,,,0.00,Wunderground v.1.15,2013-02-05 13:34:00,
2013-02-05 08:37:00,41.8,39.9,30.02,NW,308,4.0,9.0,93,0.00,,,0.00,Wunderground v.1.15,2013-02-05 13:37:00,
2013-02-05 08:39:00,41.8,39.9,30.02,NW,323,4.0,9.0,93,0.00,,,0.00,Wunderground v.1.15,2013-02-05 13:39:00,
2013-02-05 08:40:00,41.8,39.9,30.02,NW,306,3.0,9.0,93,0.00,,,0.00,Wunderground v.1.15,2013-02-05 13:40:00,
2013-02-05 08:43:00,41.8,39.9,30.02,NW,305,3.0,9.0,93,0.00,,,0.00,Wunderground v.1.15,2013-02-05 13:43:00,
2013-02-05 08:45:00,41.8,39.9,30.02,NW,319,3.0,9.0,93,0.00,,,0.00,Wunderground v.1.15,2013-02-05 13:45:00,
2013-02-05 08:46:00,41.8,39.9,30.02,WNW,302,4.0,9.0,93,0.00,,,0.00,Wunderground v.1.15,2013-02-05 13:46:00,
2013-02-05 08:48:00,41.8,39.9,30.02,NW,323,4.0,9.0,93,0.00,,,0.00,Wunderground v.1.15,2013-02-05 13:48:00,
2013-02-05 08:51:00,41.8,39.9,30.02,NW,307,4.0,9.0,93,0.00,,,0.00,Wunderground v.1.15,2013-02-05 13:51:00,
2013-02-05 08:52:00,41.8,39.9,30.02,WNW,301,4.0,9.0,93,0.00,,,0.00,Wunderground v.1.15,2013-02-05 13:52:00,
2013-02-05 08:55:00,41.8,39.9,30.02,WNW,302,5.0,9.0,93,0.00,,,0.00,Wunderground v.1.15,2013-02-05 13:55:00,
2013-02-05 08:56:00,41.8,39.9,30.02,NW,308,5.0,9.0,93,0.00,,,0.00,Wunderground v.1.15,2013-02-05 13:56:00,
2013-02-05 08:58:00,41.7,39.8,30.02,WNW,303,5.0,9.0,93,0.00,,,0.00,Wunderground v.1.15,2013-02-05 13:58:00,
2013-02-05 08:59:00,41.7,39.8,30.02,NW,308,5.0,9.0,93,0.00,,,0.00,Wunderground v.1.15,2013-02-05 13:59:00,
2013-02-05 09:01:00,41.7,39.8,30.02,NW,326,5.0,9.0,93,0.00,,,0.00,Wunderground v.1.15,2013-02-05 14:01:00,
2013-02-05 09:04:00,41.7,39.8,30.02,NW,312,5.0,9.0,93,0.00,,,0.00,Wunderground v.1.15,2013-02-05 14:04:00,
2013-02-05 09:06:00,41.7,39.8,30.02,NW,314,5.0,9.0,93,0.00,,,0.00,Wunderground v.1.15,2013-02-05 14:06:00,
2013-02-05 09:07:00,41.7,39.8,30.02,NW,311,5.0,9.0,93,0.00,,,0.00,Wunderground v.1.15,2013-02-05 14:07:00,
2013-02-05 09:08:00,41.7,39.8,30.02,NW,315,5.0,9.0,93,0.00,,,0.00,Wunderground v.1.15,2013-02-05 14:08:00,
2013-02-05 09:13:00,41.7,39.8,30.02,NW,313,5.0,9.0,93,0.00,,,0.00,Wunderground v.1.15,2013-02-05 14:13:00,
2013-02-05 09:14:00,41.8,39.9,30.02,NW,313,5.0,9.0,93,0.00,,,0.00,Wunderground v.1.15,2013-02-05 14:14:00,
2013-02-05 09:15:00,41.7,39.8,30.02,NNW,331,5.0,9.0,93,0.00,,,0.00,Wunderground v.1.15,2013-02-05 14:15:00,
2013-02-05 09:18:00,41.7,39.8,30.02,NW,311,4.0,9.0,93,0.00,,,0.00,Wunderground v.1.15,2013-02-05 14:18:00,
2013-02-05 09:20:00,41.8,39.9,30.02,NW,304,4.0,9.0,93,0.00,,,0.00,Wunderground v.1.15,2013-02-05 14:20:00,
2013-02-05 09:21:00,41.7,39.8,30.03,WNW,303,4.0,9.0,93,0.00,,,0.00,Wunderground v.1.15,2013-02-05 14:21:00,
2013-02-05 09:23:00,41.7,39.8,30.03,NW,317,4.0,10.0,93,0.00,,,0.00,Wunderground v.1.15,2013-02-05 14:23:00,
2013-02-05 09:26:00,41.7,39.8,30.03,NNW,336,5.0,10.0,93,0.00,,,0.00,Wunderground v.1.15,2013-02-05 14:26:00,
2013-02-05 09:27:00,41.7,39.5,30.03,WNW,302,5.0,10.0,92,0.00,,,0.00,Wunderground v.1.15,2013-02-05 14:27:00,
2013-02-05 09:29:00,41.7,39.8,30.03,WNW,296,5.0,10.0,93,0.00,,,0.00,Wunderground v.1.15,2013-02-05 14:29:00,
2013-02-05 09:32:00,41.7,39.5,30.03,NW,316,6.0,10.0,92,0.00,,,0.00,Wunderground v.1.15,2013-02-05 14:32:00,
2013-02-05 09:33:00,41.6,39.4,30.03,WNW,299,6.0,10.0,92,0.00,,,0.00,Wunderground v.1.15,2013-02-05 14:33:00,
2013-02-05 09:34:00,41.6,39.4,30.03,WNW,299,6.0,10.0,92,0.00,,,0.00,Wunderground v.1.15,2013-02-05 14:34:00,
2013-02-05 09:35:00,41.6,39.4,30.03,NW,309,6.0,10.0,92,0.00,,,0.00,Wunderground v.1.15,2013-02-05 14:35:00,
2013-02-05 09:37:00,41.6,39.4,30.03,NW,311,6.0,10.0,92,0.00,,,0.00,Wunderground v.1.15,2013-02-05 14:37:00,
2013-02-05 09:40:00,41.6,39.4,30.03,WNW,285,6.0,10.0,92,0.00,,,0.00,Wunderground v.1.15,2013-02-05 14:40:00,
2013-02-05 09:43:00,41.6,39.4,30.03,NNW,329,5.0,9.0,92,0.00,,,0.00,Wunderground v.1.15,2013-02-05 14:43:00,
2013-02-05 09:44:00,41.6,39.4,30.03,WNW,299,5.0,9.0,92,0.00,,,0.00,Wunderground v.1.15,2013-02-05 14:44:00,
2013-02-05 09:46:00,41.6,39.4,30.03,WNW,294,5.0,9.0,92,0.00,,,0.00,Wunderground v.1.15,2013-02-05 14:46:00,
2013-02-05 09:52:00,41.7,39.5,30.03,WNW,300,5.0,6.0,92,0.00,,,0.00,Wunderground v.1.15,2013-02-05 14:52:00,
2013-02-05 09:54:00,41.7,39.5,30.03,WNW,298,5.0,9.0,92,0.00,,,0.00,Wunderground v.1.15,2013-02-05 14:54:00,
2013-02-05 09:56:00,41.7,39.5,30.03,WNW,288,5.0,9.0,92,0.00,,,0.00,Wunderground v.1.15,2013-02-05 14:56:00,
2013-02-05 09:57:00,41.7,39.5,30.03,NW,313,5.0,9.0,92,0.00,,,0.00,Wunderground v.1.15,2013-02-05 14:57:00,
2013-02-05 09:59:00,41.7,39.5,30.03,NW,308,5.0,9.0,92,0.00,,,0.00,Wunderground v.1.15,2013-02-05 14:59:00,
2013-02-05 10:05:00,41.8,39.6,30.03,WNW,300,5.0,9.0,92,0.00,,,0.00,Wunderground v.1.15,2013-02-05 15:05:00,
2013-02-05 10:06:00,41.8,39.6,30.03,NW,306,5.0,9.0,92,0.00,,,0.00,Wunderground v.1.15,2013-02-05 15:06:00,
2013-02-05 10:07:00,41.8,39.6,30.03,NW,314,5.0,9.0,92,0.00,,,0.00,Wunderground v.1.15,2013-02-05 15:07:00,
2013-02-05 10:12:00,41.8,39.6,30.03,NW,304,5.0,9.0,92,0.00,,,0.00,Wunderground v.1.15,2013-02-05 15:12:00,
2013-02-05 10:14:00,41.9,39.7,30.04,NW,304,5.0,9.0,92,0.00,,,0.00,Wunderground v.1.15,2013-02-05 15:14:00,
2013-02-05 10:15:00,41.9,39.7,30.04,NW,304,5.0,9.0,92,0.00,,,0.00,Wunderground v.1.15,2013-02-05 15:15:00,
2013-02-05 10:17:00,41.9,39.7,30.04,NW,311,4.0,9.0,92,0.00,,,0.00,Wunderground v.1.15,2013-02-05 15:17:00,
2013-02-05 10:20:00,42.0,39.8,30.04,NNW,333,3.0,9.0,92,0.00,,,0.00,Wunderground v.1.15,2013-02-05 15:20:00,
2013-02-05 10:21:00,42.0,39.8,30.04,WNW,302,3.0,3.0,92,0.00,,,0.00,Wunderground v.1.15,2013-02-05 15:21:00,
2013-02-05 10:23:00,42.0,39.6,30.04,WNW,302,4.0,10.0,91,0.00,,,0.00,Wunderground v.1.15,2013-02-05 15:23:00,
2013-02-05 10:24:00,42.1,39.7,30.04,NW,321,4.0,10.0,91,0.00,,,0.00,Wunderground v.1.15,2013-02-05 15:24:00,
2013-02-05 10:27:00,42.2,39.8,30.04,NNW,330,4.0,10.0,91,0.00,,,0.00,Wunderground v.1.15,2013-02-05 15:27:00,
2013-02-05 10:29:00,42.2,39.8,30.04,NW,317,4.0,10.0,91,0.00,,,0.00,Wunderground v.1.15,2013-02-05 15:29:00,
2013-02-05 10:31:00,42.2,39.5,30.04,WNW,297,5.0,9.0,90,0.00,,,0.00,Wunderground v.1.15,2013-02-05 15:31:00,
2013-02-05 10:34:00,42.2,39.5,30.04,NW,306,5.0,9.0,90,0.00,,,0.00,Wunderground v.1.15,2013-02-05 15:34:00,
2013-02-05 10:35:00,42.2,39.5,30.04,NW,310,5.0,9.0,90,0.00,,,0.00,Wunderground v.1.15,2013-02-05 15:35:00,
2013-02-05 10:37:00,42.2,39.5,30.04,WNW,287,6.0,9.0,90,0.00,,,0.00,Wunderground v.1.15,2013-02-05 15:37:00,
2013-02-05 10:38:00,42.2,39.2,30.04,NW,321,6.0,9.0,89,0.00,,,0.00,Wunderground v.1.15,2013-02-05 15:38:00,
2013-02-05 10:43:00,42.4,39.1,30.05,WNW,298,6.0,9.0,88,0.00,,,0.00,Wunderground v.1.15,2013-02-05 15:43:00,
2013-02-05 10:44:00,42.4,39.4,30.05,NW,309,6.0,9.0,89,0.00,,,0.00,Wunderground v.1.15,2013-02-05 15:44:00,
2013-02-05 10:45:00,42.4,39.1,30.04,NW,313,6.0,9.0,88,0.00,,,0.00,Wunderground v.1.15,2013-02-05 15:45:00,
2013-02-05 10:48:00,42.3,38.4,30.04,NW,315,7.0,12.0,86,0.00,,,0.00,Wunderground v.1.15,2013-02-05 15:48:00,
2013-02-05 10:50:00,42.3,38.4,30.04,NW,313,7.0,12.0,86,0.00,,,0.00,Wunderground v.1.15,2013-02-05 15:50:00,
2013-02-05 10:51:00,42.3,38.4,30.04,NW,304,7.0,7.0,86,0.00,,,0.00,Wunderground v.1.15,2013-02-05 15:51:00,
2013-02-05 10:53:00,42.4,38.8,30.04,WNW,299,7.0,9.0,87,0.00,,,0.00,Wunderground v.1.15,2013-02-05 15:53:00,
2013-02-05 10:58:00,42.6,38.7,30.04,WNW,302,6.0,9.0,86,0.00,,,0.00,Wunderground v.1.15,2013-02-05 15:58:00,
2013-02-05 10:59:00,42.6,38.7,30.04,NW,313,6.0,9.0,86,0.00,,,0.00,Wunderground v.1.15,2013-02-05 15:59:00,
2013-02-05 11:03:00,42.7,38.5,30.04,NW,315,6.0,9.0,85,0.00,,,0.00,Wunderground v.1.15,2013-02-05 16:03:00,
2013-02-05 11:04:00,42.7,38.5,30.04,West,274,6.0,9.0,85,0.00,,,0.00,Wunderground v.1.15,2013-02-05 16:04:00,
2013-02-05 11:05:00,42.8,38.6,30.04,WNW,289,6.0,9.0,85,0.00,,,0.00,Wunderground v.1.15,2013-02-05 16:05:00,
2013-02-05 11:06:00,42.8,38.3,30.04,WNW,296,6.0,9.0,84,0.00,,,0.00,Wunderground v.1.15,2013-02-05 16:06:00,
2013-02-05 11:08:00,42.7,38.2,30.04,NW,306,6.0,9.0,84,0.00,,,0.00,Wunderground v.1.15,2013-02-05 16:08:00,
2013-02-05 11:11:00,42.7,38.2,30.04,NW,306,6.0,9.0,84,0.00,,,0.00,Wunderground v.1.15,2013-02-05 16:11:00,
2013-02-05 11:12:00,42.8,38.3,30.04,West,275,6.0,9.0,84,0.00,,,0.00,Wunderground v.1.15,2013-02-05 16:12:00,
2013-02-05 11:15:00,43.0,38.5,30.05,NW,304,6.0,9.0,84,0.00,,,0.00,Wunderground v.1.15,2013-02-05 16:15:00,
2013-02-05 11:17:00,43.2,38.4,30.04,WNW,290,6.0,9.0,83,0.00,,,0.00,Wunderground v.1.15,2013-02-05 16:17:00,
2013-02-05 11:19:00,43.3,38.5,30.04,West,279,7.0,10.0,83,0.00,,,0.00,Wunderground v.1.15,2013-02-05 16:19:00,
2013-02-05 11:20:00,43.4,38.3,30.04,NW,304,7.0,10.0,82,0.00,,,0.00,Wunderground v.1.15,2013-02-05 16:20:00,
2013-02-05 11:24:00,43.5,38.4,30.04,NW,304,8.0,14.0,82,0.00,,,0.00,Wunderground v.1.15,2013-02-05 16:24:00,
2013-02-05 11:25:00,43.6,38.5,30.04,WNW,282,8.0,14.0,82,0.00,,,0.00,Wunderground v.1.15,2013-02-05 16:25:00,
2013-02-05 11:27:00,43.7,38.3,30.04,WNW,284,9.0,14.0,81,0.00,,,0.00,Wunderground v.1.15,2013-02-05 16:27:00,
2013-02-05 11:29:00,43.7,37.9,30.04,WNW,284,9.0,14.0,80,0.00,,,0.00,Wunderground v.1.15,2013-02-05 16:29:00,
2013-02-05 11:30:00,43.6,38.2,30.04,NW,315,9.0,14.0,81,0.00,,,0.00,Wunderground v.1.15,2013-02-05 16:30:00,
2013-02-05 11:31:00,43.7,38.3,30.04,West,267,10.0,11.0,81,0.00,,,0.00,Wunderground v.1.15,2013-02-05 16:31:00,
2013-02-05 11:36:00,43.7,37.6,30.04,NW,304,9.0,14.0,79,0.00,,,0.00,Wunderground v.1.15,2013-02-05 16:36:00,
2013-02-05 11:37:00,43.6,37.8,30.04,NW,319,9.0,14.0,80,0.00,,,0.00,Wunderground v.1.15,2013-02-05 16:37:00,
2013-02-05 11:38:00,43.5,37.7,30.04,West,280,10.0,14.0,80,0.00,,,0.00,Wunderground v.1.15,2013-02-05 16:38:00,
2013-02-05 11:39:00,43.5,37.7,30.04,WNW,302,10.0,14.0,80,0.00,,,0.00,Wunderground v.1.15,2013-02-05 16:39:00,
2013-02-05 11:42:00,43.5,38.1,30.04,NW,319,9.0,9.0,81,0.00,,,0.00,Wunderground v.1.15,2013-02-05 16:42:00,
2013-02-05 11:43:00,43.5,38.4,30.04,NW,315,8.0,9.0,82,0.00,,,0.00,Wunderground v.1.15,2013-02-05 16:43:00,
2013-02-05 11:44:00,43.4,38.0,30.04,NW,314,8.0,9.0,81,0.00,,,0.00,Wunderground v.1.15,2013-02-05 16:44:00,
2013-02-05 11:46:00,43.5,38.1,30.04,NW,304,8.0,9.0,81,0.00,,,0.00,Wunderground v.1.15,2013-02-05 16:46:00,
2013-02-05 11:48:00,43.6,38.2,30.04,West,281,7.0,9.0,81,0.00,,,0.00,Wunderground v.1.15,2013-02-05 16:48:00,
2013-02-05 11:50:00,43.6,38.2,30.04,WNW,290,7.0,9.0,81,0.00,,,0.00,Wunderground v.1.15,2013-02-05 16:50:00,
2013-02-05 11:52:00,43.6,38.2,30.04,WNW,289,6.0,9.0,81,0.00,,,0.00,Wunderground v.1.15,2013-02-05 16:52:00,
2013-02-05 11:54:00,43.7,38.3,30.04,WNW,297,6.0,9.0,81,0.00,,,0.00,Wunderground v.1.15,2013-02-05 16:54:00,
2013-02-05 11:56:00,43.8,38.3,30.04,WNW,300,6.0,9.0,81,0.00,,,0.00,Wunderground v.1.15,2013-02-05 16:56:00,
2013-02-05 11:59:00,43.8,38.3,30.04,West,261,6.0,9.0,81,0.00,,,0.00,Wunderground v.1.15,2013-02-05 16:59:00,
2013-02-05 12:02:00,44.0,38.9,30.04,NW,304,6.0,9.0,82,0.00,,,0.00,Wunderground v.1.15,2013-02-05 17:02:00,
2013-02-05 12:04:00,44.0,38.9,30.04,NW,325,6.0,9.0,82,0.00,,,0.00,Wunderground v.1.15,2013-02-05 17:04:00,
2013-02-05 12:05:00,44.0,38.9,30.04,NNW,334,5.0,9.0,82,0.00,,,0.00,Wunderground v.1.15,2013-02-05 17:05:00,
2013-02-05 12:06:00,44.1,39.0,30.04,NW,306,5.0,9.0,82,0.00,,,0.00,Wunderground v.1.15,2013-02-05 17:06:00,
2013-02-05 12:09:00,44.2,39.1,30.04,NNW,327,5.0,9.0,82,0.00,,,0.00,Wunderground v.1.15,2013-02-05 17:09:00,
2013-02-05 12:11:00,44.3,39.2,30.04,NW,309,5.0,9.0,82,0.00,,,0.00,Wunderground v.1.15,2013-02-05 17:11:00,
2013-02-05 12:14:00,44.2,38.7,30.03,WNW,302,6.0,9.0,81,0.00,,,0.00,Wunderground v.1.15,2013-02-05 17:14:00,
2013-02-05 12:15:00,44.2,39.1,30.03,NW,320,6.0,9.0,82,0.00,,,0.00,Wunderground v.1.15,2013-02-05 17:15:00,
2013-02-05 12:17:00,44.2,38.7,30.03,WNW,290,6.0,9.0,81,0.00,,,0.00,Wunderground v.1.15,2013-02-05 17:17:00,
2013-02-05 12:18:00,44.3,38.8,30.03,NW,305,6.0,9.0,81,0.00,,,0.00,Wunderground v.1.15,2013-02-05 17:18:00,
2013-02-05 12:22:00,44.3,37.9,30.03,NW,304,6.0,9.0,78,0.00,,,0.00,Wunderground v.1.15,2013-02-05 17:22:00,
2013-02-05 12:23:00,44.3,38.2,30.03,WNW,296,6.0,9.0,79,0.00,,,0.00,Wunderground v.1.15,2013-02-05 17:23:00,
2013-02-05 12:28:00,44.6,38.2,30.03,NW,311,7.0,9.0,78,0.00,,,0.00,Wunderground v.1.15,2013-02-05 17:28:00,
2013-02-05 12:29:00,44.7,38.3,30.03,NW,315,7.0,9.0,78,0.00,,,0.00,Wunderground v.1.15,2013-02-05 17:29:00,
2013-02-05 12:30:00,44.7,38.3,30.03,WNW,290,7.0,9.0,78,0.00,,,0.00,Wunderground v.1.15,2013-02-05 17:30:00,
2013-02-05 12:34:00,44.6,37.8,30.03,West,279,7.0,9.0,77,0.00,,,0.00,Wunderground v.1.15,2013-02-05 17:34:00,
2013-02-05 12:35:00,44.6,37.8,30.03,WNW,302,7.0,9.0,77,0.00,,,0.00,Wunderground v.1.15,2013-02-05 17:35:00,
2013-02-05 12:39:00,44.6,38.2,30.03,WNW,298,7.0,9.0,78,0.00,,,0.00,Wunderground v.1.15,2013-02-05 17:39:00,
2013-02-05 12:40:00,44.7,38.3,30.03,NW,310,7.0,9.0,78,0.00,,,0.00,Wunderground v.1.15,2013-02-05 17:40:00,
2013-02-05 12:41:00,44.7,38.3,30.03,SSW,208,7.0,9.0,78,0.00,,,0.00,Wunderground v.1.15,2013-02-05 17:41:00,
2013-02-05 12:42:00,44.7,38.6,30.03,West,277,7.0,9.0,79,0.00,,,0.00,Wunderground v.1.15,2013-02-05 17:42:00,
2013-02-05 12:46:00,44.8,38.7,30.03,WNW,284,7.0,9.0,79,0.00,,,0.00,Wunderground v.1.15,2013-02-05 17:46:00,
2013-02-05 12:48:00,44.9,38.8,30.03,NW,311,6.0,9.0,79,0.00,,,0.00,Wunderground v.1.15,2013-02-05 17:48:00,
2013-02-05 12:51:00,45.1,39.0,30.03,WNW,298,6.0,6.0,79,0.00,,,0.00,Wunderground v.1.15,2013-02-05 17:51:00,
2013-02-05 12:52:00,45.2,39.1,30.03,WNW,286,5.0,9.0,79,0.00,,,0.00,Wunderground v.1.15,2013-02-05 17:52:00,
2013-02-05 12:53:00,45.2,39.1,30.03,West,269,5.0,9.0,79,0.00,,,0.00,Wunderground v.1.15,2013-02-05 17:53:00,
2013-02-05 12:56:00,45.2,38.7,30.03,WNW,292,5.0,10.0,78,0.00,,,0.00,Wunderground v.1.15,2013-02-05 17:56:00,
2013-02-05 12:58:00,45.3,39.2,30.03,NW,317,6.0,10.0,79,0.00,,,0.00,Wunderground v.1.15,2013-02-05 17:58:00,
2013-02-05 13:01:00,45.2,38.7,30.03,NW,308,7.0,12.0,78,0.00,,,0.00,Wunderground v.1.15,2013-02-05 18:01:00,
2013-02-05 13:03:00,45.1,38.3,30.03,WSW,254,8.0,12.0,77,0.00,,,0.00,Wunderground v.1.15,2013-02-05 18:03:00,
2013-02-05 13:07:00,45.0,38.2,30.03,WNW,289,8.0,12.0,77,0.00,,,0.00,Wunderground v.1.15,2013-02-05 18:07:00,
2013-02-05 13:08:00,45.0,38.2,30.03,WNW,289,9.0,12.0,77,0.00,,,0.00,Wunderground v.1.15,2013-02-05 18:08:00,
2013-02-05 13:09:00,45.0,38.2,30.03,NW,309,9.0,12.0,77,0.00,,,0.00,Wunderground v.1.15,2013-02-05 18:09:00,
2013-02-05 13:12:00,45.0,38.2,30.03,NW,317,8.0,9.0,77,0.00,,,0.00,Wunderground v.1.15,2013-02-05 18:12:00,
2013-02-05 13:14:00,45.1,38.3,30.03,WNW,299,8.0,9.0,77,0.00,,,0.00,Wunderground v.1.15,2013-02-05 18:14:00,
2013-02-05 13:16:00,45.1,38.0,30.03,WNW,290,8.0,9.0,76,0.00,,,0.00,Wunderground v.1.15,2013-02-05 18:16:00,
2013-02-05 13:19:00,45.2,38.4,30.02,West,267,7.0,9.0,77,0.00,,,0.00,Wunderground v.1.15,2013-02-05 18:19:00,
2013-02-05 13:20:00,45.2,38.1,30.02,WNW,294,7.0,9.0,76,0.00,,,0.00,Wunderground v.1.15,2013-02-05 18:20:00,
2013-02-05 13:23:00,45.4,38.3,30.02,WNW,300,7.0,9.0,76,0.00,,,0.00,Wunderground v.1.15,2013-02-05 18:23:00,
2013-02-05 13:26:00,45.7,38.9,30.02,WNW,301,7.0,9.0,77,0.00,,,0.00,Wunderground v.1.15,2013-02-05 18:26:00,
2013-02-05 13:27:00,45.8,39.0,30.02,West,269,6.0,9.0,77,0.00,,,0.00,Wunderground v.1.15,2013-02-05 18:27:00,
2013-02-05 13:30:00,46.2,39.4,30.02,NW,313,7.0,9.0,77,0.00,,,0.00,Wunderground v.1.15,2013-02-05 18:30:00,
2013-02-05 13:31:00,46.3,38.8,30.02,NW,316,7.0,7.0,75,0.00,,,0.00,Wunderground v.1.15,2013-02-05 18:31:00,
2013-02-05 13:32:00,46.3,39.1,30.02,WNW,282,7.0,9.0,76,0.00,,,0.00,Wunderground v.1.15,2013-02-05 18:32:00,
2013-02-05 13:34:00,46.4,38.9,30.02,WNW,292,7.0,9.0,75,0.00,,,0.00,Wunderground v.1.15,2013-02-05 18:34:00,
2013-02-05 13:36:00,46.5,39.0,30.02,WNW,282,7.0,9.0,75,0.00,,,0.00,Wunderground v.1.15,2013-02-05 18:36:00,
2013-02-05 13:37:00,46.5,38.7,30.01,NW,313,7.0,9.0,74,0.00,,,0.00,Wunderground v.1.15,2013-02-05 18:37:00,
2013-02-05 13:38:00,46.4,38.2,30.01,West,280,7.0,9.0,73,0.00,,,0.00,Wunderground v.1.15,2013-02-05 18:38:00,
2013-02-05 13:39:00,46.4,38.2,30.01,NW,308,7.0,9.0,73,0.00,,,0.00,Wunderground v.1.15,2013-02-05 18:39:00,
2013-02-05 13:41:00,46.5,38.3,30.01,WNW,294,7.0,7.0,73,0.00,,,0.00,Wunderground v.1.15,2013-02-05 18:41:00,
2013-02-05 13:42:00,46.7,38.5,30.01,WNW,297,7.0,9.0,73,0.00,,,0.00,Wunderground v.1.15,2013-02-05 18:42:00,
2013-02-05 13:46:00,46.9,39.0,30.01,WNW,288,6.0,9.0,74,0.00,,,0.00,Wunderground v.1.15,2013-02-05 18:46:00,
2013-02-05 13:47:00,47.0,38.8,30.01,West,279,6.0,9.0,73,0.00,,,0.00,Wunderground v.1.15,2013-02-05 18:47:00,
2013-02-05 13:48:00,47.1,38.9,30.01,West,281,6.0,9.0,73,0.00,,,0.00,Wunderground v.1.15,2013-02-05 18:48:00,
2013-02-05 13:49:00,47.1,38.2,30.01,WSW,241,6.0,9.0,71,0.00,,,0.00,Wunderground v.1.15,2013-02-05 18:49:00,
2013-02-05 13:55:00,47.4,38.8,30.00,West,261,7.0,18.0,72,0.00,,,0.00,Wunderground v.1.15,2013-02-05 18:55:00,
2013-02-05 13:56:00,47.5,38.6,30.00,West,281,7.0,18.0,71,0.00,,,0.00,Wunderground v.1.15,2013-02-05 18:56:00,
2013-02-05 13:58:00,47.6,38.3,30.00,West,261,8.0,18.0,70,0.00,,,0.00,Wunderground v.1.15,2013-02-05 18:58:00,
2013-02-05 13:59:00,47.6,38.7,30.00,WSW,237,8.0,18.0,71,0.00,,,0.00,Wunderground v.1.15,2013-02-05 18:59:00,
2013-02-05 14:01:00,47.6,38.7,30.00,WNW,286,8.0,8.0,71,0.00,,,0.00,Wunderground v.1.15,2013-02-05 19:01:00,
2013-02-05 14:04:00,47.8,38.5,30.00,WNW,298,7.0,12.0,70,0.00,,,0.00,Wunderground v.1.15,2013-02-05 19:04:00,
2013-02-05 14:06:00,47.6,38.3,30.00,WNW,295,7.0,12.0,70,0.00,,,0.00,Wunderground v.1.15,2013-02-05 19:06:00,
2013-02-05 14:07:00,47.7,38.8,30.00,WNW,286,7.0,12.0,71,0.00,,,0.00,Wunderground v.1.15,2013-02-05 19:07:00,
2013-02-05 14:11:00,47.6,37.9,30.00,WNW,300,7.0,11.0,69,0.00,,,0.00,Wunderground v.1.15,2013-02-05 19:11:00,
2013-02-05 14:14:00,47.4,37.7,30.00,WNW,300,8.0,13.0,69,0.00,,,0.00,Wunderground v.1.15,2013-02-05 19:14:00,
2013-02-05 14:15:00,47.4,37.4,30.00,NW,311,8.0,13.0,68,0.00,,,0.00,Wunderground v.1.15,2013-02-05 19:15:00,
2013-02-05 14:17:00,47.4,37.4,30.00,WNW,286,9.0,13.0,68,0.00,,,0.00,Wunderground v.1.15,2013-02-05 19:17:00,
2013-02-05 14:21:00,47.3,38.4,29.99,WNW,295,8.0,8.0,71,0.00,,,0.00,Wunderground v.1.15,2013-02-05 19:21:00,
2013-02-05 14:23:00,47.4,38.8,29.99,West,263,8.0,9.0,72,0.00,,,0.00,Wunderground v.1.15,2013-02-05 19:23:00,
2013-02-05 14:26:00,47.3,37.6,29.99,WNW,302,7.0,12.0,69,0.00,,,0.00,Wunderground v.1.15,2013-02-05 19:26:00,
2013-02-05 14:27:00,47.3,37.6,29.99,WNW,292,7.0,12.0,69,0.00,,,0.00,Wunderground v.1.15,2013-02-05 19:27:00,
2013-02-05 14:28:00,47.3,37.6,29.99,WNW,283,7.0,12.0,69,0.00,,,0.00,Wunderground v.1.15,2013-02-05 19:28:00,
2013-02-05 14:33:00,47.5,37.1,29.99,WNW,288,7.0,10.0,67,0.00,,,0.00,Wunderground v.1.15,2013-02-05 19:33:00,
2013-02-05 14:36:00,47.6,36.8,29.99,SW,236,7.0,10.0,66,0.00,,,0.00,Wunderground v.1.15,2013-02-05 19:36:00,
2013-02-05 14:37:00,47.6,37.2,29.99,WNW,288,7.0,11.0,67,0.00,,,0.00,Wunderground v.1.15,2013-02-05 19:37:00,
2013-02-05 14:40:00,47.4,37.4,29.99,WNW,298,7.0,11.0,68,0.00,,,0.00,Wunderground v.1.15,2013-02-05 19:40:00,
2013-02-05 14:43:00,47.5,37.5,29.99,NW,311,7.0,9.0,68,0.00,,,0.00,Wunderground v.1.15,2013-02-05 19:43:00,
2013-02-05 14:44:00,47.5,37.5,29.99,West,281,7.0,9.0,68,0.00,,,0.00,Wunderground v.1.15,2013-02-05 19:44:00,
2013-02-05 14:46:00,47.6,37.2,29.99,NW,315,7.0,9.0,67,0.00,,,0.00,Wunderground v.1.15,2013-02-05 19:46:00,
2013-02-05 14:47:00,47.7,37.3,29.99,WNW,290,6.0,9.0,67,0.00,,,0.00,Wunderground v.1.15,2013-02-05 19:47:00,
2013-02-05 14:51:00,48.0,38.3,29.99,WNW,300,5.0,5.0,69,0.00,,,0.00,Wunderground v.1.15,2013-02-05 19:51:00,
2013-02-05 14:53:00,48.2,38.5,29.99,West,276,4.0,9.0,69,0.00,,,0.00,Wunderground v.1.15,2013-02-05 19:53:00,
2013-02-05 14:54:00,48.2,38.5,29.99,West,265,4.0,9.0,69,0.00,,,0.00,Wunderground v.1.15,2013-02-05 19:54:00,
2013-02-05 14:56:00,48.3,38.2,29.99,West,275,4.0,9.0,68,0.00,,,0.00,Wunderground v.1.15,2013-02-05 19:56:00,
2013-02-05 14:59:00,48.3,38.2,29.99,WNW,302,5.0,9.0,68,0.00,,,0.00,Wunderground v.1.15,2013-02-05 19:59:00,
2013-02-05 15:01:00,48.4,39.1,29.99,NW,309,5.0,5.0,70,0.00,,,0.00,Wunderground v.1.15,2013-02-05 20:01:00,
2013-02-05 15:03:00,48.5,39.2,29.99,WNW,290,6.0,9.0,70,0.00,,,0.00,Wunderground v.1.15,2013-02-05 20:03:00,
2013-02-05 15:05:00,48.5,38.8,29.99,WNW,286,6.0,9.0,69,0.00,,,0.00,Wunderground v.1.15,2013-02-05 20:05:00,
2013-02-05 15:09:00,48.8,39.4,29.99,WNW,285,5.0,9.0,70,0.00,,,0.00,Wunderground v.1.15,2013-02-05 20:09:00,
2013-02-05 15:11:00,48.9,39.2,29.99,NW,308,6.0,6.0,69,0.00,,,0.00,Wunderground v.1.15,2013-02-05 20:11:00,
2013-02-05 15:12:00,48.9,38.8,29.99,NNW,330,6.0,9.0,68,0.00,,,0.00,Wunderground v.1.15,2013-02-05 20:12:00,
2013-02-05 15:15:00,48.8,38.7,29.99,SW,220,6.0,15.0,68,0.00,,,0.00,Wunderground v.1.15,2013-02-05 20:15:00,
2013-02-05 15:16:00,48.8,38.7,29.99,West,274,6.0,15.0,68,0.00,,,0.00,Wunderground v.1.15,2013-02-05 20:16:00,
2013-02-05 15:18:00,48.8,38.3,29.99,WNW,282,6.0,15.0,67,0.00,,,0.00,Wunderground v.1.15,2013-02-05 20:18:00,
2013-02-05 15:21:00,48.7,37.8,29.99,WNW,297,6.0,6.0,66,0.00,,,0.00,Wunderground v.1.15,2013-02-05 20:21:00,
2013-02-05 15:22:00,48.7,38.2,29.99,NW,313,5.0,9.0,67,0.00,,,0.00,Wunderground v.1.15,2013-02-05 20:22:00,
2013-02-05 15:28:00,48.9,38.0,29.99,WNW,295,5.0,11.0,66,0.00,,,0.00,Wunderground v.1.15,2013-02-05 20:28:00,
2013-02-05 15:29:00,48.8,37.9,29.99,NW,306,5.0,11.0,66,0.00,,,0.00,Wunderground v.1.15,2013-02-05 20:29:00,
2013-02-05 15:31:00,48.8,37.9,29.99,NW,311,5.0,5.0,66,0.00,,,0.00,Wunderground v.1.15,2013-02-05 20:31:00,
2013-02-05 15:32:00,49.0,38.5,29.99,SSW,206,5.0,9.0,67,0.00,,,0.00,Wunderground v.1.15,2013-02-05 20:32:00,
2013-02-05 15:35:00,49.2,37.9,29.99,WNW,298,5.0,11.0,65,0.00,,,0.00,Wunderground v.1.15,2013-02-05 20:35:00,
2013-02-05 15:36:00,49.2,37.9,29.99,WNW,296,6.0,11.0,65,0.00,,,0.00,Wunderground v.1.15,2013-02-05 20:36:00,
2013-02-05 15:37:00,49.2,37.9,29.99,WNW,290,6.0,11.0,65,0.00,,,0.00,Wunderground v.1.15,2013-02-05 20:37:00,
2013-02-05 15:41:00,49.5,38.6,29.99,SW,230,5.0,5.0,66,0.00,,,0.00,Wunderground v.1.15,2013-02-05 20:41:00,
2013-02-05 15:42:00,49.6,39.5,29.99,WSW,251,5.0,8.0,68,0.00,,,0.00,Wunderground v.1.15,2013-02-05 20:42:00,
2013-02-05 15:46:00,49.2,37.9,29.99,WNW,295,5.0,9.0,65,0.00,,,0.00,Wunderground v.1.15,2013-02-05 20:46:00,
2013-02-05 15:48:00,49.0,38.5,29.99,SW,234,6.0,9.0,67,0.00,,,0.00,Wunderground v.1.15,2013-02-05 20:48:00,
2013-02-05 15:51:00,49.0,37.7,29.99,NW,304,6.0,9.0,65,0.00,,,0.00,Wunderground v.1.15,2013-02-05 20:51:00,
2013-02-05 15:53:00,48.9,38.0,29.99,WNW,288,6.0,9.0,66,0.00,,,0.00,Wunderground v.1.15,2013-02-05 20:53:00,
2013-02-05 15:54:00,48.9,38.0,29.99,WSW,238,6.0,9.0,66,0.00,,,0.00,Wunderground v.1.15,2013-02-05 20:54:00,
2013-02-05 15:55:00,48.9,38.0,29.99,NW,308,6.0,9.0,66,0.00,,,0.00,Wunderground v.1.15,2013-02-05 20:55:00,
2013-02-05 15:59:00,49.0,37.7,29.99,WNW,296,7.0,10.0,65,0.00,,,0.00,Wunderground v.1.15,2013-02-05 20:59:00,
2013-02-05 16:01:00,49.0,37.7,29.99,WNW,291,7.0,7.0,65,0.00,,,0.00,Wunderground v.1.15,2013-02-05 21:01:00,
2013-02-05 16:02:00,49.0,38.1,29.99,WNW,296,6.0,9.0,66,0.00,,,0.00,Wunderground v.1.15,2013-02-05 21:02:00,
2013-02-05 16:04:00,49.1,37.4,29.99,West,267,7.0,10.0,64,0.00,,,0.00,Wunderground v.1.15,2013-02-05 21:04:00,
2013-02-05 16:06:00,49.1,37.8,29.99,SW,234,7.0,10.0,65,0.00,,,0.00,Wunderground v.1.15,2013-02-05 21:06:00,
2013-02-05 16:09:00,49.2,37.5,29.99,WNW,293,7.0,10.0,64,0.00,,,0.00,Wunderground v.1.15,2013-02-05 21:09:00,
2013-02-05 16:10:00,49.2,37.1,29.99,WSW,246,7.0,10.0,63,0.00,,,0.00,Wunderground v.1.15,2013-02-05 21:10:00,
2013-02-05 16:12:00,49.3,37.6,29.99,West,281,7.0,9.0,64,0.00,,,0.00,Wunderground v.1.15,2013-02-05 21:12:00,
2013-02-05 16:13:00,49.3,37.2,29.99,WNW,297,7.0,9.0,63,0.00,,,0.00,Wunderground v.1.15,2013-02-05 21:13:00,
2013-02-05 16:14:00,49.3,37.2,29.99,WNW,287,7.0,9.0,63,0.00,,,0.00,Wunderground v.1.15,2013-02-05 21:14:00,
2013-02-05 16:16:00,49.3,37.2,29.99,WNW,296,6.0,9.0,63,0.00,,,0.00,Wunderground v.1.15,2013-02-05 21:16:00,
2013-02-05 16:17:00,49.4,37.7,29.99,WSW,238,6.0,10.0,64,0.00,,,0.00,Wunderground v.1.15,2013-02-05 21:17:00,
2013-02-05 16:20:00,49.4,37.3,29.99,West,272,6.0,13.0,63,0.00,,,0.00,Wunderground v.1.15,2013-02-05 21:20:00,
2013-02-05 16:21:00,49.4,37.7,29.99,West,267,6.0,6.0,64,0.00,,,0.00,Wunderground v.1.15,2013-02-05 21:21:00,
2013-02-05 16:26:00,49.5,37.8,29.99,West,266,6.0,9.0,64,0.00,,,0.00,Wunderground v.1.15,2013-02-05 21:26:00,
2013-02-05 16:27:00,49.5,38.2,29.99,WNW,283,6.0,9.0,65,0.00,,,0.00,Wunderground v.1.15,2013-02-05 21:27:00,
2013-02-05 16:31:00,49.5,38.6,29.99,West,260,4.0,9.0,66,0.00,,,0.00,Wunderground v.1.15,2013-02-05 21:31:00,
2013-02-05 16:34:00,49.5,38.6,29.99,West,275,4.0,9.0,66,0.00,,,0.00,Wunderground v.1.15,2013-02-05 21:34:00,
2013-02-05 16:35:00,49.6,38.7,29.99,WNW,287,4.0,9.0,66,0.00,,,0.00,Wunderground v.1.15,2013-02-05 21:35:00,
2013-02-05 16:36:00,49.6,38.7,29.99,WNW,288,4.0,9.0,66,0.00,,,0.00,Wunderground v.1.15,2013-02-05 21:36:00,
2013-02-05 16:37:00,49.6,38.7,29.99,WNW,294,3.0,9.0,66,0.00,,,0.00,Wunderground v.1.15,2013-02-05 21:37:00,
2013-02-05 16:39:00,49.6,38.7,29.99,WNW,292,3.0,9.0,66,0.00,,,0.00,Wunderground v.1.15,2013-02-05 21:39:00,
2013-02-05 16:40:00,49.6,39.1,29.99,WSW,248,3.0,9.0,67,0.00,,,0.00,Wunderground v.1.15,2013-02-05 21:40:00,
2013-02-05 16:43:00,49.6,39.1,29.98,SW,225,3.0,9.0,67,0.00,,,0.00,Wunderground v.1.15,2013-02-05 21:43:00,
2013-02-05 16:45:00,49.6,39.1,29.98,West,281,3.0,9.0,67,0.00,,,0.00,Wunderground v.1.15,2013-02-05 21:45:00,
2013-02-05 16:48:00,49.6,39.1,29.98,WSW,254,3.0,9.0,67,0.00,,,0.00,Wunderground v.1.15,2013-02-05 21:48:00,
2013-02-05 16:49:00,49.6,39.1,29.98,WSW,243,3.0,9.0,67,0.00,,,0.00,Wunderground v.1.15,2013-02-05 21:49:00,
2013-02-05 16:52:00,49.6,39.1,29.98,WSW,246,3.0,9.0,67,0.00,,,0.00,Wunderground v.1.15,2013-02-05 21:52:00,
2013-02-05 16:54:00,49.6,38.7,29.98,WNW,296,4.0,9.0,66,0.00,,,0.00,Wunderground v.1.15,2013-02-05 21:54:00,
2013-02-05 16:57:00,49.6,38.7,29.98,West,274,5.0,9.0,66,0.00,,,0.00,Wunderground v.1.15,2013-02-05 21:57:00,
2013-02-05 16:59:00,49.6,38.7,29.98,WSW,249,5.0,9.0,66,0.00,,,0.00,Wunderground v.1.15,2013-02-05 21:59:00,
2013-02-05 17:02:00,49.7,38.4,29.98,WNW,294,5.0,9.0,65,0.00,,,0.00,Wunderground v.1.15,2013-02-05 22:02:00,
2013-02-05 17:03:00,49.8,38.9,29.98,West,265,5.0,9.0,66,0.00,,,0.00,Wunderground v.1.15,2013-02-05 22:03:00,
2013-02-05 17:04:00,49.8,38.9,29.98,West,270,5.0,9.0,66,0.00,,,0.00,Wunderground v.1.15,2013-02-05 22:04:00,
2013-02-05 17:07:00,49.9,38.6,29.98,WSW,258,4.0,9.0,65,0.00,,,0.00,Wunderground v.1.15,2013-02-05 22:07:00,
2013-02-05 17:10:00,49.9,38.2,29.98,WSW,247,5.0,9.0,64,0.00,,,0.00,Wunderground v.1.15,2013-02-05 22:10:00,
2013-02-05 17:12:00,49.9,38.6,29.98,WSW,257,6.0,9.0,65,0.00,,,0.00,Wunderground v.1.15,2013-02-05 22:12:00,
2013-02-05 17:13:00,49.8,38.5,29.98,West,277,6.0,9.0,65,0.00,,,0.00,Wunderground v.1.15,2013-02-05 22:13:00,
2013-02-05 17:14:00,49.7,38.4,29.98,WNW,299,6.0,9.0,65,0.00,,,0.00,Wunderground v.1.15,2013-02-05 22:14:00,
2013-02-05 17:17:00,49.7,38.4,29.98,West,281,7.0,10.0,65,0.00,,,0.00,Wunderground v.1.15,2013-02-05 22:17:00,
2013-02-05 17:20:00,49.8,38.5,29.98,WNW,286,7.0,10.0,65,0.00,,,0.00,Wunderground v.1.15,2013-02-05 22:20:00,
2013-02-05 17:21:00,49.8,38.5,29.98,WSW,249,6.0,6.0,65,0.00,,,0.00,Wunderground v.1.15,2013-02-05 22:21:00,
2013-02-05 17:22:00,49.8,38.5,29.98,NW,308,6.0,9.0,65,0.00,,,0.00,Wunderground v.1.15,2013-02-05 22:22:00,
2013-02-05 17:24:00,49.8,38.5,29.98,West,264,5.0,9.0,65,0.00,,,0.00,Wunderground v.1.15,2013-02-05 22:24:00,
2013-02-05 17:26:00,49.8,38.5,29.98,WNW,300,5.0,9.0,65,0.00,,,0.00,Wunderground v.1.15,2013-02-05 22:26:00,
2013-02-05 17:27:00,49.7,38.4,29.98,WSW,239,5.0,9.0,65,0.00,,,0.00,Wunderground v.1.15,2013-02-05 22:27:00,
2013-02-05 17:31:00,49.6,38.3,29.98,WSW,250,5.0,5.0,65,0.00,,,0.00,Wunderground v.1.15,2013-02-05 22:31:00,
2013-02-05 17:32:00,49.6,38.7,29.97,West,277,5.0,9.0,66,0.00,,,0.00,Wunderground v.1.15,2013-02-05 22:32:00,
2013-02-05 17:34:00,49.5,38.2,29.98,West,275,4.0,9.0,65,0.00,,,0.00,Wunderground v.1.15,2013-02-05 22:34:00,
2013-02-05 17:37:00,49.5,38.2,29.97,West,277,4.0,9.0,65,0.00,,,0.00,Wunderground v.1.15,2013-02-05 22:37:00,
2013-02-05 17:39:00,49.3,38.0,29.98,West,270,4.0,9.0,65,0.00,,,0.00,Wunderground v.1.15,2013-02-05 22:39:00,
2013-02-05 17:40:00,49.3,38.0,29.98,WNW,290,4.0,9.0,65,0.00,,,0.00,Wunderground v.1.15,2013-02-05 22:40:00,
2013-02-05 17:42:00,49.2,37.9,29.98,West,271,4.0,9.0,65,0.00,,,0.00,Wunderground v.1.15,2013-02-05 22:42:00,
2013-02-05 17:45:00,49.0,37.7,29.98,West,270,4.0,9.0,65,0.00,,,0.00,Wunderground v.1.15,2013-02-05 22:45:00,
2013-02-05 17:47:00,48.9,37.6,29.97,West,277,4.0,9.0,65,0.00,,,0.00,Wunderground v.1.15,2013-02-05 22:47:00,
2013-02-05 17:50:00,48.8,37.9,29.97,West,265,3.0,9.0,66,0.00,,,0.00,Wunderground v.1.15,2013-02-05 22:50:00,
2013-02-05 17:52:00,48.7,37.5,29.97,WSW,248,3.0,9.0,65,0.00,,,0.00,Wunderground v.1.15,2013-02-05 22:52:00,
2013-02-05 17:55:00,48.8,37.6,29.97,West,280,3.0,9.0,65,0.00,,,0.00,Wunderground v.1.15,2013-02-05 22:55:00,
2013-02-05 17:56:00,48.7,37.8,29.97,WNW,293,3.0,9.0,66,0.00,,,0.00,Wunderground v.1.15,2013-02-05 22:56:00,
2013-02-05 18:01:00,48.6,37.7,29.97,WNW,302,2.0,9.0,66,0.00,,,0.00,Wunderground v.1.15,2013-02-05 23:01:00,
2013-02-05 18:04:00,48.4,37.6,29.98,West,269,2.0,9.0,66,0.00,,,0.00,Wunderground v.1.15,2013-02-05 23:04:00,
2013-02-05 18:06:00,48.2,37.8,29.98,WNW,288,1.0,9.0,67,0.00,,,0.00,Wunderground v.1.15,2013-02-05 23:06:00,
2013-02-05 18:07:00,48.2,37.4,29.98,West,280,1.0,9.0,66,0.00,,,0.00,Wunderground v.1.15,2013-02-05 23:07:00,
2013-02-05 18:11:00,47.9,37.5,29.97,West,272,2.0,9.0,67,0.00,,,0.00,Wunderground v.1.15,2013-02-05 23:11:00,
2013-02-05 18:12:00,48.0,37.2,29.98,West,273,2.0,9.0,66,0.00,,,0.00,Wunderground v.1.15,2013-02-05 23:12:00,
2013-02-05 18:17:00,48.1,37.3,29.98,West,275,3.0,9.0,66,0.00,,,0.00,Wunderground v.1.15,2013-02-05 23:17:00,
2013-02-05 18:19:00,48.0,37.2,29.98,West,272,3.0,9.0,66,0.00,,,0.00,Wunderground v.1.15,2013-02-05 23:19:00,
2013-02-05 18:22:00,48.0,37.2,29.98,West,269,3.0,9.0,66,0.00,,,0.00,Wunderground v.1.15,2013-02-05 23:22:00,
2013-02-05 18:25:00,48.0,36.8,29.98,West,281,3.0,9.0,65,0.00,,,0.00,Wunderground v.1.15,2013-02-05 23:25:00,
2013-02-05 18:26:00,48.0,36.8,29.98,West,275,3.0,9.0,65,0.00,,,0.00,Wunderground v.1.15,2013-02-05 23:26:00,
2013-02-05 18:27:00,48.0,37.2,29.98,West,278,3.0,9.0,66,0.00,,,0.00,Wunderground v.1.15,2013-02-05 23:27:00,
2013-02-05 18:28:00,48.0,36.8,29.98,West,261,3.0,9.0,65,0.00,,,0.00,Wunderground v.1.15,2013-02-05 23:28:00,
2013-02-05 18:32:00,47.9,36.7,29.98,West,263,3.0,9.0,65,0.00,,,0.00,Wunderground v.1.15,2013-02-05 23:32:00,
2013-02-05 18:34:00,47.8,36.6,29.98,WSW,250,3.0,9.0,65,0.00,,,0.00,Wunderground v.1.15,2013-02-05 23:34:00,
2013-02-05 18:35:00,47.8,36.6,29.98,WNW,300,3.0,9.0,65,0.00,,,0.00,Wunderground v.1.15,2013-02-05 23:35:00,
2013-02-05 18:37:00,47.8,36.6,29.98,West,268,3.0,9.0,65,0.00,,,0.00,Wunderground v.1.15,2013-02-05 23:37:00,
2013-02-05 18:39:00,47.8,36.6,29.98,WNW,291,3.0,9.0,65,0.00,,,0.00,Wunderground v.1.15,2013-02-05 23:39:00,
2013-02-05 18:40:00,47.7,36.5,29.98,WNW,294,3.0,9.0,65,0.00,,,0.00,Wunderground v.1.15,2013-02-05 23:40:00,
2013-02-05 18:42:00,47.6,36.4,29.98,WNW,284,3.0,4.0,65,0.00,,,0.00,Wunderground v.1.15,2013-02-05 23:42:00,
2013-02-05 18:43:00,47.6,36.4,29.98,WSW,254,3.0,9.0,65,0.00,,,0.00,Wunderground v.1.15,2013-02-05 23:43:00,
2013-02-05 18:45:00,47.6,36.4,29.98,West,269,3.0,9.0,65,0.00,,,0.00,Wunderground v.1.15,2013-02-05 23:45:00,
2013-02-05 18:48:00,47.7,36.5,29.98,West,280,2.0,9.0,65,0.00,,,0.00,Wunderground v.1.15,2013-02-05 23:48:00,
2013-02-05 18:52:00,47.5,36.3,29.98,WNW,288,2.0,9.0,65,0.00,,,0.00,Wunderground v.1.15,2013-02-05 23:52:00,
2013-02-05 18:53:00,47.5,36.3,29.98,WNW,290,2.0,9.0,65,0.00,,,0.00,Wunderground v.1.15,2013-02-05 23:53:00,
2013-02-05 18:55:00,47.5,36.3,29.98,WNW,296,2.0,9.0,65,0.00,,,0.00,Wunderground v.1.15,2013-02-05 23:55:00,
2013-02-05 18:57:00,47.4,36.2,29.98,WNW,290,2.0,9.0,65,0.00,,,0.00,Wunderground v.1.15,2013-02-05 23:57:00,
2013-02-05 19:01:00,47.4,36.2,29.99,WNW,292,2.0,2.0,65,0.00,,,0.00,Wunderground v.1.15,2013-02-06 00:01:00,
2013-02-05 19:03:00,47.3,36.1,29.99,WNW,302,2.0,9.0,65,0.00,,,0.00,Wunderground v.1.15,2013-02-06 00:03:00,
2013-02-05 19:04:00,47.3,36.1,29.99,WNW,302,2.0,9.0,65,0.00,,,0.00,Wunderground v.1.15,2013-02-06 00:04:00,
2013-02-05 19:09:00,47.2,36.0,29.99,WNW,302,1.0,9.0,65,0.00,,,0.00,Wunderground v.1.15,2013-02-06 00:09:00,
2013-02-05 19:10:00,47.2,36.0,29.99,WNW,302,1.0,9.0,65,0.00,,,0.00,Wunderground v.1.15,2013-02-06 00:10:00,
2013-02-05 19:15:00,47.1,35.9,29.99,NW,304,1.0,9.0,65,0.00,,,0.00,Wunderground v.1.15,2013-02-06 00:15:00,
2013-02-05 19:16:00,47.1,35.9,29.99,NW,304,1.0,9.0,65,0.00,,,0.00,Wunderground v.1.15,2013-02-06 00:16:00,
2013-02-05 19:17:00,47.1,35.9,30.00,NW,304,1.0,9.0,65,0.00,,,0.00,Wunderground v.1.15,2013-02-06 00:17:00,
2013-02-05 19:22:00,47.0,36.2,30.00,NW,305,1.0,9.0,66,0.00,,,0.00,Wunderground v.1.15,2013-02-06 00:22:00,
2013-02-05 19:23:00,47.0,36.2,30.00,NW,305,1.0,9.0,66,0.00,,,0.00,Wunderground v.1.15,2013-02-06 00:23:00,
2013-02-05 19:24:00,47.0,36.2,30.00,West,277,1.0,9.0,66,0.00,,,0.00,Wunderground v.1.15,2013-02-06 00:24:00,
2013-02-05 19:26:00,47.0,36.2,30.00,WNW,303,1.0,9.0,66,0.00,,,0.00,Wunderground v.1.15,2013-02-06 00:26:00,
2013-02-05 19:28:00,47.0,36.2,30.00,WNW,296,2.0,9.0,66,0.00,,,0.00,Wunderground v.1.15,2013-02-06 00:28:00,
2013-02-05 19:29:00,47.0,36.2,30.00,WNW,297,2.0,9.0,66,0.00,,,0.00,Wunderground v.1.15,2013-02-06 00:29:00,
2013-02-05 19:32:00,47.0,36.2,30.00,WNW,300,2.0,9.0,66,0.00,,,0.00,Wunderground v.1.15,2013-02-06 00:32:00,
2013-02-05 19:34:00,47.0,36.2,30.00,WNW,300,1.0,9.0,66,0.00,,,0.00,Wunderground v.1.15,2013-02-06 00:34:00,
2013-02-05 19:36:00,47.0,36.2,30.00,WNW,302,2.0,9.0,66,0.00,,,0.00,Wunderground v.1.15,2013-02-06 00:36:00,
2013-02-05 19:38:00,47.0,36.2,30.00,WNW,300,2.0,9.0,66,0.00,,,0.00,Wunderground v.1.15,2013-02-06 00:38:00,
2013-02-05 19:41:00,47.0,36.2,30.00,WNW,300,2.0,2.0,66,0.00,,,0.00,Wunderground v.1.15,2013-02-06 00:41:00,
2013-02-05 19:42:00,46.9,36.1,30.00,WNW,294,2.0,9.0,66,0.00,,,0.00,Wunderground v.1.15,2013-02-06 00:42:00,
2013-02-05 19:46:00,47.0,36.2,30.00,WNW,298,2.0,9.0,66,0.00,,,0.00,Wunderground v.1.15,2013-02-06 00:46:00,
2013-02-05 19:47:00,47.0,36.2,30.00,WNW,298,2.0,9.0,66,0.00,,,0.00,Wunderground v.1.15,2013-02-06 00:47:00,
2013-02-05 19:48:00,47.0,36.2,30.00,WNW,302,2.0,9.0,66,0.00,,,0.00,Wunderground v.1.15,2013-02-06 00:48:00,
2013-02-05 19:49:00,47.0,36.2,30.00,WNW,302,2.0,9.0,66,0.00,,,0.00,Wunderground v.1.15,2013-02-06 00:49:00,
2013-02-05 19:54:00,47.1,36.3,30.01,WNW,292,2.0,9.0,66,0.00,,,0.00,Wunderground v.1.15,2013-02-06 00:54:00,
2013-02-05 19:55:00,47.0,35.8,30.01,WNW,289,2.0,9.0,65,0.00,,,0.00,Wunderground v.1.15,2013-02-06 00:55:00,
2013-02-05 19:56:00,47.0,35.8,30.01,WNW,284,2.0,9.0,65,0.00,,,0.00,Wunderground v.1.15,2013-02-06 00:56:00,
2013-02-05 20:01:00,47.2,36.0,30.01,WNW,301,3.0,3.0,65,0.00,,,0.00,Wunderground v.1.15,2013-02-06 01:01:00,
2013-02-05 20:02:00,47.1,35.9,30.01,WNW,290,3.0,9.0,65,0.00,,,0.00,Wunderground v.1.15,2013-02-06 01:02:00,
2013-02-05 20:03:00,47.1,35.9,30.01,WNW,293,3.0,9.0,65,0.00,,,0.00,Wunderground v.1.15,2013-02-06 01:03:00,
2013-02-05 20:07:00,47.1,35.9,30.01,West,281,3.0,9.0,65,0.00,,,0.00,Wunderground v.1.15,2013-02-06 01:07:00,
2013-02-05 20:09:00,47.0,36.2,30.01,NW,308,3.0,9.0,66,0.00,,,0.00,Wunderground v.1.15,2013-02-06 01:09:00,
2013-02-05 20:11:00,47.0,35.8,30.01,WNW,303,3.0,9.0,65,0.00,,,0.00,Wunderground v.1.15,2013-02-06 01:11:00,
2013-02-05 20:12:00,47.0,35.8,30.01,WNW,286,3.0,9.0,65,0.00,,,0.00,Wunderground v.1.15,2013-02-06 01:12:00,
2013-02-05 20:14:00,46.9,36.1,30.01,WNW,284,3.0,9.0,66,0.00,,,0.00,Wunderground v.1.15,2013-02-06 01:14:00,
2013-02-05 20:18:00,47.1,35.9,30.01,WNW,302,4.0,9.0,65,0.00,,,0.00,Wunderground v.1.15,2013-02-06 01:18:00,
2013-02-05 20:19:00,47.2,36.0,30.01,NW,313,4.0,9.0,65,0.00,,,0.00,Wunderground v.1.15,2013-02-06 01:19:00,
2013-02-05 20:20:00,47.3,36.1,30.01,NW,311,5.0,9.0,65,0.00,,,0.00,Wunderground v.1.15,2013-02-06 01:20:00,
2013-02-05 20:22:00,47.4,36.2,30.02,WNW,282,5.0,9.0,65,0.00,,,0.00,Wunderground v.1.15,2013-02-06 01:22:00,
2013-02-05 20:26:00,47.7,36.1,30.02,NW,308,6.0,9.0,64,0.00,,,0.00,Wunderground v.1.15,2013-02-06 01:26:00,
2013-02-05 20:27:00,47.8,36.2,30.02,NW,315,6.0,9.0,64,0.00,,,0.00,Wunderground v.1.15,2013-02-06 01:27:00,
2013-02-05 20:28:00,47.9,36.3,30.02,NW,311,6.0,9.0,64,0.00,,,0.00,Wunderground v.1.15,2013-02-06 01:28:00,
2013-02-05 20:30:00,48.0,36.4,30.02,NW,315,7.0,9.0,64,0.00,,,0.00,Wunderground v.1.15,2013-02-06 01:30:00,
2013-02-05 20:33:00,48.1,36.5,30.02,NW,306,7.0,9.0,64,0.00,,,0.00,Wunderground v.1.15,2013-02-06 01:33:00,
2013-02-05 20:37:00,48.1,36.9,30.02,NW,304,7.0,9.0,65,0.00,,,0.00,Wunderground v.1.15,2013-02-06 01:37:00,
2013-02-05 20:39:00,48.0,36.8,30.02,NW,323,6.0,10.0,65,0.00,,,0.00,Wunderground v.1.15,2013-02-06 01:39:00,
2013-02-05 20:42:00,48.2,37.0,30.03,NW,321,6.0,9.0,65,0.00,,,0.00,Wunderground v.1.15,2013-02-06 01:42:00,
2013-02-05 20:44:00,48.1,36.9,30.03,NW,317,7.0,9.0,65,0.00,,,0.00,Wunderground v.1.15,2013-02-06 01:44:00,
2013-02-05 20:46:00,48.2,37.0,30.03,WNW,294,7.0,11.0,65,0.00,,,0.00,Wunderground v.1.15,2013-02-06 01:46:00,
2013-02-05 20:47:00,48.2,36.6,30.03,WNW,301,7.0,11.0,64,0.00,,,0.00,Wunderground v.1.15,2013-02-06 01:47:00,
2013-02-05 20:48:00,48.3,37.1,30.03,NW,304,7.0,11.0,65,0.00,,,0.00,Wunderground v.1.15,2013-02-06 01:48:00,
2013-02-05 20:51:00,48.2,37.0,30.03,NW,306,7.0,7.0,65,0.00,,,0.00,Wunderground v.1.15,2013-02-06 01:51:00,
2013-02-05 20:52:00,48.2,37.0,30.03,NW,307,7.0,9.0,65,0.00,,,0.00,Wunderground v.1.15,2013-02-06 01:52:00,
2013-02-05 20:54:00,48.1,36.9,30.03,NW,315,7.0,9.0,65,0.00,,,0.00,Wunderground v.1.15,2013-02-06 01:54:00,
2013-02-05 20:56:00,48.1,36.9,30.03,NW,317,7.0,9.0,65,0.00,,,0.00,Wunderground v.1.15,2013-02-06 01:56:00,
2013-02-05 20:57:00,48.1,36.9,30.03,NW,317,7.0,9.0,65,0.00,,,0.00,Wunderground v.1.15,2013-02-06 01:57:00,
2013-02-05 20:59:00,47.9,37.1,30.03,NW,316,6.0,9.0,66,0.00,,,0.00,Wunderground v.1.15,2013-02-06 01:59:00,
2013-02-05 21:02:00,47.7,36.9,30.03,NW,313,7.0,9.0,66,0.00,,,0.00,Wunderground v.1.15,2013-02-06 02:02:00,
2013-02-05 21:05:00,47.6,36.8,30.04,WNW,298,6.0,9.0,66,0.00,,,0.00,Wunderground v.1.15,2013-02-06 02:05:00,
2013-02-05 21:06:00,47.6,37.2,30.04,NW,306,6.0,9.0,67,0.00,,,0.00,Wunderground v.1.15,2013-02-06 02:06:00,
2013-02-05 21:07:00,47.4,37.0,30.04,NW,319,5.0,9.0,67,0.00,,,0.00,Wunderground v.1.15,2013-02-06 02:07:00,
2013-02-05 21:09:00,47.4,37.0,30.04,WNW,299,5.0,9.0,67,0.00,,,0.00,Wunderground v.1.15,2013-02-06 02:09:00,
2013-02-05 21:12:00,47.4,37.0,30.04,NW,314,5.0,9.0,67,0.00,,,0.00,Wunderground v.1.15,2013-02-06 02:12:00,
2013-02-05 21:14:00,47.3,36.9,30.04,NW,305,5.0,9.0,67,0.00,,,0.00,Wunderground v.1.15,2013-02-06 02:14:00,
2013-02-05 21:16:00,47.2,36.8,30.04,NW,310,5.0,9.0,67,0.00,,,0.00,Wunderground v.1.15,2013-02-06 02:16:00,
2013-02-05 21:19:00,47.0,36.6,30.05,NW,320,5.0,9.0,67,0.00,,,0.00,Wunderground v.1.15,2013-02-06 02:19:00,
2013-02-05 21:21:00,46.9,36.5,30.05,NW,323,4.0,9.0,67,0.00,,,0.00,Wunderground v.1.15,2013-02-06 02:21:00,
2013-02-05 21:22:00,46.9,36.5,30.05,NW,314,4.0,9.0,67,0.00,,,0.00,Wunderground v.1.15,2013-02-06 02:22:00,
2013-02-05 21:26:00,46.8,36.4,30.05,WNW,303,5.0,9.0,67,0.00,,,0.00,Wunderground v.1.15,2013-02-06 02:26:00,
2013-02-05 21:27:00,46.8,36.4,30.05,NW,313,5.0,9.0,67,0.00,,,0.00,Wunderground v.1.15,2013-02-06 02:27:00,
2013-02-05 21:28:00,46.8,36.4,30.05,NW,309,5.0,9.0,67,0.00,,,0.00,Wunderground v.1.15,2013-02-06 02:28:00,
2013-02-05 21:30:00,46.8,36.4,30.05,NW,304,5.0,9.0,67,0.00,,,0.00,Wunderground v.1.15,2013-02-06 02:30:00,
2013-02-05 21:33:00,46.7,36.3,30.05,NW,311,5.0,9.0,67,0.00,,,0.00,Wunderground v.1.15,2013-02-06 02:33:00,
2013-02-05 21:34:00,46.6,36.2,30.05,NW,318,5.0,9.0,67,0.00,,,0.00,Wunderground v.1.15,2013-02-06 02:34:00,
2013-02-05 21:35:00,46.6,36.2,30.06,WNW,303,5.0,9.0,67,0.00,,,0.00,Wunderground v.1.15,2013-02-06 02:35:00,
2013-02-05 21:36:00,46.6,36.2,30.06,NW,312,5.0,9.0,67,0.00,,,0.00,Wunderground v.1.15,2013-02-06 02:36:00,
2013-02-05 21:41:00,46.3,35.9,30.06,NW,319,5.0,9.0,67,0.00,,,0.00,Wunderground v.1.15,2013-02-06 02:41:00,
2013-02-05 21:42:00,46.2,35.8,30.06,NW,313,5.0,9.0,67,0.00,,,0.00,Wunderground v.1.15,2013-02-06 02:42:00,
2013-02-05 21:43:00,46.1,35.7,30.06,NW,316,5.0,9.0,67,0.00,,,0.00,Wunderground v.1.15,2013-02-06 02:43:00,
2013-02-05 21:47:00,46.1,35.7,30.06,NW,323,5.0,9.0,67,0.00,,,0.00,Wunderground v.1.15,2013-02-06 02:47:00,
2013-02-05 21:48:00,46.1,35.7,30.06,NW,314,5.0,9.0,67,0.00,,,0.00,Wunderground v.1.15,2013-02-06 02:48:00,
2013-02-05 21:49:00,46.1,35.7,30.06,NW,323,5.0,9.0,67,0.00,,,0.00,Wunderground v.1.15,2013-02-06 02:49:00,
2013-02-05 21:51:00,46.0,35.7,30.07,NW,311,5.0,10.0,67,0.00,,,0.00,Wunderground v.1.15,2013-02-06 02:51:00,
2013-02-05 21:55:00,45.8,35.5,30.07,NW,310,6.0,10.0,67,0.00,,,0.00,Wunderground v.1.15,2013-02-06 02:55:00,
2013-02-05 21:56:00,45.8,35.5,30.07,NW,310,6.0,10.0,67,0.00,,,0.00,Wunderground v.1.15,2013-02-06 02:56:00,
2013-02-05 21:58:00,45.7,35.4,30.07,NNW,338,6.0,10.0,67,0.00,,,0.00,Wunderground v.1.15,2013-02-06 02:58:00,
2013-02-05 22:01:00,45.7,35.4,30.07,NW,315,6.0,6.0,67,0.00,,,0.00,Wunderground v.1.15,2013-02-06 03:01:00,
2013-02-05 22:03:00,45.5,35.5,30.08,NW,309,6.0,9.0,68,0.00,,,0.00,Wunderground v.1.15,2013-02-06 03:03:00,
2013-02-05 22:06:00,45.3,35.4,30.08,NW,326,6.0,9.0,68,0.00,,,0.00,Wunderground v.1.15,2013-02-06 03:06:00,
2013-02-05 22:07:00,45.3,35.4,30.08,NW,310,6.0,9.0,68,0.00,,,0.00,Wunderground v.1.15,2013-02-06 03:07:00,
2013-02-05 22:10:00,45.4,35.1,30.08,NW,323,6.0,9.0,67,0.00,,,0.00,Wunderground v.1.15,2013-02-06 03:10:00,
2013-02-05 22:13:00,45.4,35.1,30.08,NW,317,6.0,9.0,67,0.00,,,0.00,Wunderground v.1.15,2013-02-06 03:13:00,
2013-02-05 22:14:00,45.3,35.0,30.08,NW,323,6.0,9.0,67,0.00,,,0.00,Wunderground v.1.15,2013-02-06 03:14:00,
2013-02-05 22:16:00,45.4,35.1,30.08,WNW,302,7.0,9.0,67,0.00,,,0.00,Wunderground v.1.15,2013-02-06 03:16:00,
2013-02-05 22:18:00,45.3,35.0,30.08,NW,309,7.0,9.0,67,0.00,,,0.00,Wunderground v.1.15,2013-02-06 03:18:00,
2013-02-05 22:21:00,45.2,34.9,30.08,WNW,294,7.0,9.0,67,0.00,,,0.00,Wunderground v.1.15,2013-02-06 03:21:00,
2013-02-05 22:22:00,45.2,35.3,30.08,NNW,329,7.0,9.0,68,0.00,,,0.00,Wunderground v.1.15,2013-02-06 03:22:00,
2013-02-05 22:23:00,45.2,35.3,30.08,NW,326,7.0,9.0,68,0.00,,,0.00,Wunderground v.1.15,2013-02-06 03:23:00,
2013-02-05 22:26:00,45.1,35.2,30.08,NW,308,7.0,9.0,68,0.00,,,0.00,Wunderground v.1.15,2013-02-06 03:26:00,
2013-02-05 22:27:00,45.0,35.1,30.08,NW,313,7.0,9.0,68,0.00,,,0.00,Wunderground v.1.15,2013-02-06 03:27:00,
2013-02-05 22:29:00,44.9,35.0,30.08,NW,311,6.0,9.0,68,0.00,,,0.00,Wunderground v.1.15,2013-02-06 03:29:00,
2013-02-05 22:31:00,44.9,35.0,30.08,NW,315,6.0,6.0,68,0.00,,,0.00,Wunderground v.1.15,2013-02-06 03:31:00,
2013-02-05 22:33:00,44.7,35.1,30.09,NW,322,6.0,9.0,69,0.00,,,0.00,Wunderground v.1.15,2013-02-06 03:33:00,
2013-02-05 22:34:00,44.7,35.1,30.09,NW,317,6.0,9.0,69,0.00,,,0.00,Wunderground v.1.15,2013-02-06 03:34:00,
2013-02-05 22:36:00,44.6,35.1,30.09,NW,311,6.0,9.0,69,0.00,,,0.00,Wunderground v.1.15,2013-02-06 03:36:00,
2013-02-05 22:37:00,44.7,35.1,30.09,NW,322,6.0,9.0,69,0.00,,,0.00,Wunderground v.1.15,2013-02-06 03:37:00,
2013-02-05 22:39:00,44.7,35.1,30.09,NW,320,7.0,9.0,69,0.00,,,0.00,Wunderground v.1.15,2013-02-06 03:39:00,
2013-02-05 22:41:00,44.8,35.2,30.09,NW,324,7.0,10.0,69,0.00,,,0.00,Wunderground v.1.15,2013-02-06 03:41:00,
2013-02-05 22:43:00,44.8,35.2,30.09,WNW,286,8.0,10.0,69,0.00,,,0.00,Wunderground v.1.15,2013-02-06 03:43:00,
2013-02-05 22:44:00,44.8,35.2,30.09,NW,314,8.0,10.0,69,0.00,,,0.00,Wunderground v.1.15,2013-02-06 03:44:00,
2013-02-05 22:49:00,44.7,35.1,30.09,NNW,348,7.0,10.0,69,0.00,,,0.00,Wunderground v.1.15,2013-02-06 03:49:00,
2013-02-05 22:50:00,44.6,35.1,30.09,NNW,329,7.0,10.0,69,0.00,,,0.00,Wunderground v.1.15,2013-02-06 03:50:00,
2013-02-05 22:52:00,44.6,35.4,30.10,NW,304,7.0,9.0,70,0.00,,,0.00,Wunderground v.1.15,2013-02-06 03:52:00,
2013-02-05 22:56:00,44.5,35.3,30.10,NNW,336,6.0,9.0,70,0.00,,,0.00,Wunderground v.1.15,2013-02-06 03:56:00,
2013-02-05 22:57:00,44.4,35.2,30.10,NNW,336,6.0,9.0,70,0.00,,,0.00,Wunderground v.1.15,2013-02-06 03:57:00,
2013-02-05 22:59:00,44.2,35.0,30.10,North,11,6.0,9.0,70,0.00,,,0.00,Wunderground v.1.15,2013-02-06 03:59:00,
2013-02-05 23:02:00,44.0,35.2,30.10,NNW,340,6.0,12.0,71,0.00,,,0.00,Wunderground v.1.15,2013-02-06 04:02:00,
2013-02-05 23:03:00,44.0,34.8,30.10,North,351,7.0,12.0,70,0.00,,,0.00,Wunderground v.1.15,2013-02-06 04:03:00,
2013-02-05 23:05:00,43.9,35.1,30.10,North,5,7.0,12.0,71,0.00,,,0.00,Wunderground v.1.15,2013-02-06 04:05:00,
2013-02-05 23:08:00,43.7,34.9,30.10,NNW,338,9.0,12.0,71,0.00,,,0.00,Wunderground v.1.15,2013-02-06 04:08:00,
2013-02-05 23:09:00,43.6,34.8,30.10,NNW,334,9.0,12.0,71,0.00,,,0.00,Wunderground v.1.15,2013-02-06 04:09:00,
2013-02-05 23:11:00,43.5,34.7,30.10,NNW,344,10.0,10.0,71,0.00,,,0.00,Wunderground v.1.15,2013-02-06 04:11:00,
2013-02-05 23:15:00,43.2,34.8,30.10,NW,313,10.0,12.0,72,0.00,,,0.00,Wunderground v.1.15,2013-02-06 04:15:00,
2013-02-05 23:18:00,43.0,34.6,30.10,NNW,336,9.0,12.0,72,0.00,,,0.00,Wunderground v.1.15,2013-02-06 04:18:00,
2013-02-05 23:20:00,42.9,34.8,30.10,NNW,348,9.0,12.0,73,0.00,,,0.00,Wunderground v.1.15,2013-02-06 04:20:00,
2013-02-05 23:23:00,42.9,34.8,30.10,NW,319,9.0,12.0,73,0.00,,,0.00,Wunderground v.1.15,2013-02-06 04:23:00,
2013-02-05 23:25:00,42.8,34.7,30.10,NW,317,9.0,12.0,73,0.00,,,0.00,Wunderground v.1.15,2013-02-06 04:25:00,
2013-02-05 23:26:00,42.7,34.6,30.10,NNW,341,8.0,12.0,73,0.00,,,0.00,Wunderground v.1.15,2013-02-06 04:26:00,
2013-02-05 23:27:00,42.7,34.6,30.10,NNW,348,8.0,12.0,73,0.00,,,0.00,Wunderground v.1.15,2013-02-06 04:27:00,
2013-02-05 23:32:00,42.3,34.6,30.11,NNW,343,7.0,9.0,74,0.00,,,0.00,Wunderground v.1.15,2013-02-06 04:32:00,
2013-02-05 23:34:00,42.3,34.6,30.11,NNW,338,6.0,9.0,74,0.00,,,0.00,Wunderground v.1.15,2013-02-06 04:34:00,
2013-02-05 23:36:00,42.2,34.5,30.11,NNW,342,6.0,9.0,74,0.00,,,0.00,Wunderground v.1.15,2013-02-06 04:36:00,
2013-02-05 23:39:00,42.0,34.6,30.11,North,355,5.0,9.0,75,0.00,,,0.00,Wunderground v.1.15,2013-02-06 04:39:00,
2013-02-05 23:40:00,41.9,34.6,30.11,NNW,329,5.0,9.0,75,0.00,,,0.00,Wunderground v.1.15,2013-02-06 04:40:00,
2013-02-05 23:45:00,41.6,34.3,30.11,NNE,22,6.0,9.0,75,0.00,,,0.00,Wunderground v.1.15,2013-02-06 04:45:00,
2013-02-05 23:46:00,41.6,34.6,30.11,NNW,347,6.0,9.0,76,0.00,,,0.00,Wunderground v.1.15,2013-02-06 04:46:00,
2013-02-05 23:47:00,41.5,34.5,30.12,NNW,340,6.0,9.0,76,0.00,,,0.00,Wunderground v.1.15,2013-02-06 04:47:00,
2013-02-05 23:48:00,41.4,34.4,30.12,NW,315,5.0,9.0,76,0.00,,,0.00,Wunderground v.1.15,2013-02-06 04:48:00,
2013-02-05 23:53:00,41.1,34.1,30.12,North,355,5.0,9.0,76,0.00,,,0.00,Wunderground v.1.15,2013-02-06 04:53:00,
2013-02-05 23:54:00,41.1,34.1,30.12,NW,321,5.0,9.0,76,0.00,,,0.00,Wunderground v.1.15,2013-02-06 04:54:00,
2013-02-05 23:56:00,41.0,34.3,30.12,NNW,335,5.0,9.0,77,0.00,,,0.00,Wunderground v.1.15,2013-02-06 04:56:00,
2013-02-05 23:57:00,41.0,34.3,30.12,NW,309,5.0,9.0,77,0.00,,,0.00,Wunderground v.1.15,2013-02-06 04:57:00,